| time (UTC) | temp F | wind direction | speed MPH | gust MPH | rain 1hr in | rain 24hr in | rain mn in | humidity % | barometer mb |
| 20260903101024 | 73 | 78 | 2.0 | 3.0 | 0.00 | 0.01 | 0.01 | 80 | 1022.7 |
| 20260903100924 | 72 | 63 | 2.0 | 3.0 | 0.00 | 0.01 | 0.01 | 80 | 1022.9 |
| 20260903100803 | 72 | 66 | 2.0 | 3.0 | 0.00 | 0.01 | 0.01 | 79 | 1022.7 |
| 20260903100703 | 72 | 59 | 2.0 | 3.0 | 0.00 | 0.01 | 0.01 | 80 | 1022.8 |
| 20260903100624 | 72 | 68 | 2.0 | 3.0 | 0.00 | 0.01 | 0.01 | 81 | 1022.9 |
| 20260903100503 | 72 | 70 | 2.0 | 3.0 | 0.00 | 0.01 | 0.01 | 81 | 1022.9 |
| 20260903100403 | 72 | 63 | 2.0 | 3.0 | 0.00 | 0.01 | 0.01 | 81 | 1022.8 |
| 20260903100303 | 72 | 52 | 2.0 | 3.0 | 0.00 | 0.01 | 0.01 | 81 | 1022.9 |
| 20260903100203 | 72 | 46 | 1.0 | 3.0 | 0.00 | 0.01 | 0.01 | 82 | 1023.0 |
| 20260903100103 | 72 | 46 | 1.0 | 3.0 | 0.00 | 0.01 | 0.01 | 82 | 1023.0 |
| 20260903100024 | 72 | 34 | 1.0 | 3.0 | 0.00 | 0.01 | 0.01 | 81 | 1022.9 |
| 20260903095903 | 72 | 41 | 1.0 | 3.0 | 0.00 | 0.01 | 0.01 | 81 | 1022.9 |
| 20260903095803 | 72 | 25 | 1.0 | 3.0 | 0.00 | 0.01 | 0.01 | 84 | 1023.0 |
| 20260903095703 | 71 | 25 | 1.0 | 3.0 | 0.00 | 0.01 | 0.01 | 84 | 1022.9 |
| 20260903095624 | 71 | 19 | 1.0 | 3.0 | 0.00 | 0.01 | 0.01 | 87 | 1022.8 |
| 20260903095503 | 70 | 347 | 1.0 | 3.0 | 0.00 | 0.01 | 0.01 | 88 | 1022.9 |
| 20260903095403 | 70 | 300 | 1.0 | 3.0 | 0.00 | 0.01 | 0.01 | 87 | 1022.9 |
| 20260903095305 | 69 | 202 | 1.0 | 3.0 | 0.00 | 0.01 | 0.01 | 88 | 1023.0 |
| 20260903095203 | 69 | 194 | 1.0 | 3.0 | 0.00 | 0.01 | 0.01 | 90 | 1022.9 |
| 20260903095103 | 69 | 194 | 1.0 | 3.0 | 0.00 | 0.01 | 0.01 | 90 | 1022.9 |
| 20260903095003 | 69 | 136 | 1.0 | 3.0 | 0.00 | 0.01 | 0.01 | 92 | 1022.7 |
| 20260903094903 | 68 | 127 | 1.0 | 3.0 | 0.00 | 0.01 | 0.01 | 95 | 1022.9 |
| 20260903094803 | 67 | 83 | 1.0 | 3.0 | 0.00 | 0.01 | 0.01 | 95 | 1022.7 |
| 20260903094703 | 67 | 92 | 1.0 | 3.0 | 0.00 | 0.01 | 0.01 | 96 | 1022.9 |
| 20260903094603 | 67 | 83 | 2.0 | 3.0 | 0.00 | 0.01 | 0.01 | 97 | 1022.9 |
| 20260903094503 | 67 | 83 | 2.0 | 3.0 | 0.00 | 0.01 | 0.01 | 97 | 1022.9 |
| 20260903094403 | 67 | 91 | 2.0 | 3.0 | 0.00 | 0.01 | 0.01 | 97 | 1022.8 |
| 20260903094303 | 67 | 78 | 1.0 | 3.0 | 0.00 | 0.01 | 0.01 | 99 | 1022.7 |
| 20260903094203 | 66 | 61 | 1.0 | 2.0 | 0.00 | 0.01 | 0.01 | 99 | 1022.8 |
| 20260903094103 | 66 | 57 | 1.0 | 2.0 | 0.00 | 0.01 | 0.01 | 99 | 1022.9 |
| 20260903094003 | 66 | 61 | 2.0 | 3.0 | 0.00 | 0.01 | 0.01 | 99 | 1022.9 |
| 20260903093903 | 66 | 79 | 2.0 | 3.0 | 0.00 | 0.01 | 0.01 | 99 | 1022.9 |
| 20260903093803 | 66 | 77 | 2.0 | 3.0 | 0.00 | 0.01 | 0.01 | 99 | 1022.8 |
| 20260903093703 | 66 | 85 | 2.0 | 3.0 | 0.00 | 0.01 | 0.01 | 99 | 1022.9 |
| 20260903093603 | 66 | 353 | 1.0 | 3.0 | 0.00 | 0.01 | 0.01 | 99 | 1022.7 |
| 20260903093503 | 65 | 125 | 2.0 | 3.0 | 0.00 | 0.01 | 0.01 | 99 | 1022.8 |
| 20260903093424 | 65 | 125 | 2.0 | 3.0 | 0.00 | 0.01 | 0.01 | 99 | 1022.8 |
| 20260903093303 | 64 | 241 | 1.0 | 3.0 | 0.00 | 0.01 | 0.01 | 99 | 1022.9 |
| 20260903093203 | 65 | 217 | 2.0 | 3.0 | 0.00 | 0.01 | 0.01 | 99 | 1022.9 |
| 20260903093103 | 65 | 227 | 2.0 | 3.0 | 0.00 | 0.01 | 0.01 | 99 | 1022.9 |
| 20260903093003 | 65 | 241 | 1.0 | 3.0 | 0.00 | 0.01 | 0.01 | 99 | 1023.1 |
| 20260903092903 | 65 | 241 | 1.0 | 3.0 | 0.00 | 0.01 | 0.01 | 99 | 1023.1 |
| 20260903092803 | 65 | 353 | 1.0 | 3.0 | 0.00 | 0.01 | 0.01 | 99 | 1022.9 |
| 20260903092703 | 65 | 25 | 1.0 | 3.0 | 0.00 | 0.01 | 0.01 | 99 | 1023.0 |
| 20260903092603 | 65 | 114 | 2.0 | 3.0 | 0.00 | 0.01 | 0.01 | 99 | 1023.0 |
| 20260903092503 | 65 | 232 | 2.0 | 3.0 | 0.00 | 0.01 | 0.01 | 99 | 1023.0 |
| 20260903092403 | 65 | 274 | 2.0 | 3.0 | 0.00 | 0.01 | 0.01 | 99 | 1022.9 |
| 20260903092306 | 65 | 255 | 2.0 | 3.0 | 0.00 | 0.01 | 0.01 | 99 | 1022.8 |
| 20260903092203 | 65 | 264 | 2.0 | 3.0 | 0.00 | 0.01 | 0.01 | 99 | 1023.0 |
| 20260903092103 | 64 | 286 | 2.0 | 3.0 | 0.00 | 0.01 | 0.01 | 99 | 1022.9 |
| 20260903092003 | 64 | 320 | 2.0 | 3.0 | 0.00 | 0.01 | 0.01 | 99 | 1022.9 |
| 20260903091903 | 64 | 47 | 2.0 | 3.0 | 0.00 | 0.01 | 0.01 | 99 | 1022.8 |
| 20260903091824 | 64 | 217 | 2.0 | 3.0 | 0.00 | 0.01 | 0.01 | 99 | 1023.1 |
| 20260903091703 | 64 | 222 | 2.0 | 3.0 | 0.00 | 0.01 | 0.01 | 99 | 1022.9 |
| 20260903091603 | 64 | 182 | 2.0 | 3.0 | 0.00 | 0.01 | 0.01 | 99 | 1022.9 |
| 20260903091503 | 64 | 189 | 2.0 | 4.0 | 0.00 | 0.01 | 0.01 | 99 | 1023.0 |
| 20260903091403 | 64 | 145 | 2.0 | 4.0 | 0.00 | 0.01 | 0.01 | 99 | 1022.9 |
| 20260903091303 | 64 | 136 | 2.0 | 4.0 | 0.00 | 0.01 | 0.01 | 99 | 1023.1 |
| 20260903091203 | 64 | 92 | 2.0 | 4.0 | 0.00 | 0.01 | 0.01 | 99 | 1023.0 |
| 20260903091103 | 64 | 87 | 2.0 | 4.0 | 0.00 | 0.01 | 0.01 | 99 | 1022.9 |
| 20260903091003 | 64 | 86 | 2.0 | 4.0 | 0.00 | 0.01 | 0.01 | 99 | 1022.9 |
| 20260903090903 | 64 | 73 | 2.0 | 4.0 | 0.00 | 0.01 | 0.01 | 99 | 1022.8 |
| 20260903090803 | 64 | 82 | 2.0 | 4.0 | 0.00 | 0.01 | 0.01 | 99 | 1022.9 |
| 20260903090703 | 64 | 52 | 1.0 | 4.0 | 0.00 | 0.01 | 0.01 | 99 | 1023.0 |
| 20260903090603 | 64 | 38 | 1.0 | 4.0 | 0.00 | 0.01 | 0.01 | 99 | 1023.1 |
| 20260903090503 | 64 | 36 | 1.0 | 3.0 | 0.00 | 0.01 | 0.01 | 99 | 1023.0 |
| 20260903090403 | 63 | 26 | 1.0 | 3.0 | 0.00 | 0.01 | 0.01 | 99 | 1023.0 |
| 20260903090324 | 63 | 22 | 1.0 | 3.0 | 0.00 | 0.01 | 0.01 | 99 | 1023.1 |
| 20260903090203 | 64 | 21 | 1.0 | 3.0 | 0.00 | 0.01 | 0.01 | 99 | 1023.0 |
| 20260903090003 | 64 | 357 | 1.0 | 2.0 | 0.00 | 0.01 | 0.01 | 99 | 1022.9 |
| 20260903085924 | 63 | 353 | 1.0 | 2.0 | 0.00 | 0.01 | 0.01 | 99 | 1023.0 |
| 20260903085803 | 63 | 355 | 1.0 | 2.0 | 0.00 | 0.01 | 0.01 | 99 | 1023.0 |
| 20260903085703 | 63 | 353 | 1.0 | 2.0 | 0.00 | 0.01 | 0.01 | 99 | 1023.0 |
| 20260903085603 | 63 | 359 | 1.0 | 2.0 | 0.00 | 0.01 | 0.01 | 99 | 1023.1 |
| 20260903085524 | 63 | 9 | 1.0 | 2.0 | 0.00 | 0.01 | 0.01 | 99 | 1023.0 |
| 20260903085403 | 63 | 16 | 0.0 | 2.0 | 0.00 | 0.01 | 0.01 | 99 | 1023.0 |
| 20260903085306 | 63 | 32 | 0.0 | 1.0 | 0.00 | 0.01 | 0.01 | 99 | 1022.9 |
| 20260903085203 | 63 | 32 | 0.0 | 1.0 | 0.00 | 0.01 | 0.01 | 99 | 1022.9 |
| 20260903085103 | 63 | 32 | 0.0 | 1.0 | 0.00 | 0.01 | 0.01 | 99 | 1022.9 |
| 20260903085003 | 63 | 33 | 0.0 | 1.0 | 0.00 | 0.01 | 0.01 | 99 | 1022.9 |
| 20260903084903 | 63 | 33 | 0.0 | 1.0 | 0.00 | 0.01 | 0.01 | 99 | 1022.9 |
| 20260903084803 | 63 | 28 | 0.0 | 1.0 | 0.00 | 0.01 | 0.01 | 99 | 1022.9 |
| 20260903084703 | 64 | 28 | 0.0 | 1.0 | 0.00 | 0.01 | 0.01 | 99 | 1022.9 |
| 20260903084603 | 64 | 37 | 0.0 | 1.0 | 0.00 | 0.01 | 0.01 | 99 | 1022.8 |
| 20260903084503 | 64 | 38 | 0.0 | 1.0 | 0.00 | 0.01 | 0.01 | 99 | 1023.0 |
| 20260903084403 | 64 | 39 | 0.0 | 1.0 | 0.00 | 0.01 | 0.01 | 99 | 1022.9 |
| 20260903084303 | 64 | 41 | 0.0 | 2.0 | 0.00 | 0.01 | 0.01 | 99 | 1022.9 |
| 20260903084224 | 64 | 41 | 0.0 | 2.0 | 0.00 | 0.01 | 0.01 | 99 | 1022.9 |
| 20260903084103 | 63 | 43 | 1.0 | 2.0 | 0.00 | 0.01 | 0.01 | 99 | 1023.0 |
| 20260903084003 | 63 | 47 | 1.0 | 2.0 | 0.00 | 0.01 | 0.01 | 99 | 1023.0 |
| 20260903083903 | 63 | 50 | 1.0 | 2.0 | 0.00 | 0.01 | 0.01 | 99 | 1022.8 |
| 20260903083803 | 62 | 58 | 1.0 | 3.0 | 0.00 | 0.01 | 0.01 | 99 | 1022.9 |
| 20260903083703 | 62 | 57 | 1.0 | 3.0 | 0.00 | 0.01 | 0.01 | 99 | 1022.9 |
| 20260903083624 | 62 | 57 | 1.0 | 3.0 | 0.00 | 0.01 | 0.01 | 99 | 1023.0 |
| 20260903083503 | 61 | 58 | 1.0 | 3.0 | 0.00 | 0.01 | 0.01 | 99 | 1022.9 |
| 20260903083424 | 61 | 56 | 1.0 | 3.0 | 0.00 | 0.01 | 0.01 | 99 | 1023.0 |
| 20260903083303 | 61 | 55 | 1.0 | 3.0 | 0.00 | 0.01 | 0.01 | 99 | 1023.0 |
| 20260903083203 | 61 | 54 | 1.0 | 3.0 | 0.00 | 0.01 | 0.01 | 99 | 1023.0 |
| 20260903083103 | 61 | 54 | 1.0 | 3.0 | 0.00 | 0.01 | 0.01 | 99 | 1023.1 |
| 20260903083003 | 60 | 51 | 1.0 | 3.0 | 0.00 | 0.01 | 0.01 | 99 | 1023.1 |
| 20260903082903 | 60 | 51 | 1.0 | 3.0 | 0.00 | 0.01 | 0.01 | 99 | 1023.1 |
| 20260903082803 | 61 | 48 | 1.0 | 3.0 | 0.00 | 0.01 | 0.01 | 99 | 1023.0 |
| 20260903082703 | 61 | 35 | 1.0 | 2.0 | 0.00 | 0.01 | 0.01 | 99 | 1022.9 |
| 20260903082603 | 61 | 30 | 1.0 | 2.0 | 0.00 | 0.01 | 0.01 | 99 | 1023.0 |
| 20260903082503 | 61 | 22 | 0.0 | 1.0 | 0.00 | 0.01 | 0.01 | 99 | 1023.0 |
| 20260903082403 | 61 | 18 | 0.0 | 1.0 | 0.00 | 0.01 | 0.01 | 99 | 1023.2 |
| 20260903082306 | 61 | 21 | 0.0 | 1.0 | 0.00 | 0.01 | 0.01 | 99 | 1023.1 |
| 20260903082203 | 61 | 19 | 0.0 | 1.0 | 0.00 | 0.01 | 0.01 | 99 | 1023.1 |
| 20260903082103 | 61 | 26 | 0.0 | 1.0 | 0.00 | 0.01 | 0.01 | 99 | 1023.1 |
| 20260903082003 | 60 | 26 | 0.0 | 1.0 | 0.00 | 0.01 | 0.01 | 99 | 1023.1 |
| 20260903081903 | 60 | 26 | 0.0 | 1.0 | 0.00 | 0.01 | 0.01 | 99 | 1023.0 |
| 20260903081803 | 60 | 26 | 0.0 | 1.0 | 0.00 | 0.01 | 0.01 | 99 | 1023.2 |
| 20260903081703 | 60 | 26 | 0.0 | 1.0 | 0.00 | 0.01 | 0.01 | 99 | 1023.1 |
| 20260903081603 | 60 | 27 | 0.0 | 1.0 | 0.00 | 0.01 | 0.01 | 99 | 1023.2 |
| 20260903081503 | 60 | 0 | 0.0 | 0.0 | 0.00 | 0.01 | 0.01 | 99 | 1023.2 |
| 20260903081403 | 60 | 39 | 0.0 | 1.0 | 0.00 | 0.01 | 0.01 | 99 | 1023.2 |
| 20260903081303 | 60 | 10 | 0.0 | 2.0 | 0.00 | 0.01 | 0.01 | 99 | 1023.2 |
| 20260903081224 | 60 | 360 | 0.0 | 2.0 | 0.00 | 0.01 | 0.01 | 99 | 1023.1 |
| 20260903081103 | 60 | 358 | 0.0 | 2.0 | 0.00 | 0.01 | 0.01 | 99 | 1023.2 |
| 20260903081003 | 60 | 357 | 0.0 | 2.0 | 0.00 | 0.01 | 0.01 | 99 | 1023.1 |
| 20260903080903 | 60 | 356 | 1.0 | 2.0 | 0.00 | 0.01 | 0.01 | 99 | 1023.1 |
| 20260903080824 | 60 | 349 | 1.0 | 2.0 | 0.00 | 0.01 | 0.01 | 99 | 1023.0 |
| 20260903080703 | 59 | 350 | 1.0 | 2.0 | 0.00 | 0.01 | 0.01 | 99 | 1023.2 |
| 20260903080603 | 59 | 354 | 1.0 | 2.0 | 0.00 | 0.01 | 0.01 | 99 | 1023.1 |
| 20260903080524 | 59 | 353 | 1.0 | 2.0 | 0.00 | 0.01 | 0.01 | 99 | 1023.3 |
| 20260903080403 | 60 | 351 | 1.0 | 2.0 | 0.00 | 0.01 | 0.01 | 99 | 1023.0 |
| 20260903080303 | 60 | 358 | 1.0 | 2.0 | 0.00 | 0.01 | 0.01 | 99 | 1022.9 |
| 20260903080203 | 59 | 9 | 1.0 | 2.0 | 0.00 | 0.01 | 0.01 | 99 | 1023.1 |
| 20260903080103 | 59 | 9 | 1.0 | 2.0 | 0.00 | 0.01 | 0.01 | 99 | 1023.1 |
| 20260903080024 | 59 | 16 | 1.0 | 2.0 | 0.00 | 0.01 | 0.01 | 99 | 1022.9 |
| 20260903075925 | 59 | 21 | 1.0 | 2.0 | 0.00 | 0.01 | 0.01 | 99 | 1022.8 |
| 20260903075803 | 59 | 22 | 1.0 | 2.0 | 0.00 | 0.01 | 0.01 | 99 | 1023.1 |
| 20260903075724 | 59 | 31 | 1.0 | 2.0 | 0.00 | 0.01 | 0.01 | 99 | 1023.0 |
| 20260903075603 | 59 | 34 | 1.0 | 2.0 | 0.00 | 0.01 | 0.01 | 99 | 1023.0 |
| 20260903075503 | 59 | 34 | 1.0 | 2.0 | 0.00 | 0.01 | 0.01 | 99 | 1023.0 |
| 20260903075403 | 59 | 38 | 1.0 | 2.0 | 0.00 | 0.01 | 0.01 | 99 | 1023.1 |
| 20260903075306 | 59 | 41 | 1.0 | 2.0 | 0.00 | 0.01 | 0.01 | 99 | 1022.9 |
| 20260903075203 | 59 | 41 | 1.0 | 2.0 | 0.00 | 0.01 | 0.01 | 99 | 1023.2 |
| 20260903075103 | 59 | 36 | 1.0 | 2.0 | 0.00 | 0.01 | 0.01 | 99 | 1023.1 |
| 20260903075003 | 59 | 33 | 0.0 | 1.0 | 0.00 | 0.01 | 0.01 | 99 | 1023.0 |
| 20260903074903 | 59 | 32 | 0.0 | 1.0 | 0.00 | 0.01 | 0.01 | 99 | 1023.0 |
| 20260903074803 | 59 | 35 | 0.0 | 1.0 | 0.00 | 0.01 | 0.01 | 99 | 1023.0 |
| 20260903074724 | 59 | 35 | 0.0 | 1.0 | 0.00 | 0.01 | 0.01 | 99 | 1023.0 |
| 20260903074624 | 58 | 35 | 0.0 | 1.0 | 0.00 | 0.01 | 0.01 | 99 | 1023.0 |
| 20260903074503 | 58 | 35 | 1.0 | 1.0 | 0.00 | 0.01 | 0.01 | 99 | 1022.9 |
| 20260903074403 | 59 | 37 | 1.0 | 1.0 | 0.00 | 0.01 | 0.01 | 99 | 1022.9 |
| 20260903074303 | 59 | 42 | 1.0 | 2.0 | 0.00 | 0.01 | 0.01 | 99 | 1023.0 |
| 20260903074203 | 59 | 47 | 1.0 | 2.0 | 0.00 | 0.01 | 0.01 | 99 | 1022.9 |
| 20260903074103 | 59 | 48 | 1.0 | 2.0 | 0.00 | 0.01 | 0.01 | 99 | 1023.0 |
| 20260903074024 | 59 | 51 | 1.0 | 2.0 | 0.00 | 0.01 | 0.01 | 99 | 1022.9 |
| 20260903073903 | 59 | 53 | 1.0 | 2.0 | 0.00 | 0.01 | 0.01 | 99 | 1023.0 |
| 20260903073803 | 58 | 59 | 1.0 | 3.0 | 0.00 | 0.01 | 0.01 | 99 | 1023.1 |
| 20260903073703 | 58 | 66 | 2.0 | 3.0 | 0.00 | 0.01 | 0.01 | 99 | 1023.0 |
| 20260903073603 | 58 | 67 | 2.0 | 3.0 | 0.00 | 0.01 | 0.01 | 99 | 1022.9 |
| 20260903073503 | 58 | 69 | 2.0 | 3.0 | 0.00 | 0.01 | 0.01 | 99 | 1022.9 |
| 20260903073403 | 58 | 68 | 2.0 | 3.0 | 0.00 | 0.01 | 0.01 | 99 | 1023.1 |
| 20260903073303 | 58 | 67 | 2.0 | 3.0 | 0.00 | 0.01 | 0.01 | 99 | 1023.0 |
| 20260903073203 | 58 | 67 | 2.0 | 3.0 | 0.00 | 0.01 | 0.01 | 99 | 1022.9 |
| 20260903073103 | 58 | 67 | 2.0 | 3.0 | 0.00 | 0.01 | 0.01 | 99 | 1022.9 |
| 20260903073024 | 58 | 67 | 2.0 | 3.0 | 0.00 | 0.01 | 0.01 | 99 | 1022.9 |
| 20260903072924 | 58 | 67 | 2.0 | 3.0 | 0.00 | 0.01 | 0.01 | 99 | 1022.9 |
| 20260903072803 | 58 | 66 | 2.0 | 3.0 | 0.00 | 0.01 | 0.01 | 99 | 1022.7 |
| 20260903072703 | 58 | 66 | 2.0 | 3.0 | 0.00 | 0.01 | 0.01 | 99 | 1022.7 |
| 20260903072603 | 58 | 58 | 1.0 | 2.0 | 0.00 | 0.01 | 0.01 | 99 | 1022.8 |
| 20260903072503 | 58 | 51 | 1.0 | 2.0 | 0.00 | 0.01 | 0.01 | 99 | 1022.9 |
| 20260903072403 | 58 | 47 | 1.0 | 2.0 | 0.00 | 0.01 | 0.01 | 99 | 1022.8 |
| 20260903072306 | 58 | 42 | 1.0 | 2.0 | 0.00 | 0.01 | 0.01 | 99 | 1022.7 |
| 20260903072203 | 58 | 39 | 1.0 | 1.0 | 0.00 | 0.01 | 0.01 | 99 | 1022.8 |
| 20260903072103 | 58 | 38 | 1.0 | 1.0 | 0.00 | 0.01 | 0.01 | 99 | 1022.9 |
| 20260903071603 | 59 | 46 | 1.0 | 2.0 | 0.00 | 0.01 | 0.01 | 99 | 1022.8 |
| 20260903071503 | 59 | 46 | 1.0 | 2.0 | 0.00 | 0.01 | 0.01 | 99 | 1022.7 |
| 20260903071424 | 59 | 46 | 1.0 | 2.0 | 0.00 | 0.01 | 0.01 | 99 | 1022.7 |
| 20260903071303 | 58 | 49 | 1.0 | 2.0 | 0.00 | 0.01 | 0.01 | 99 | 1022.7 |
| 20260903071224 | 58 | 49 | 1.0 | 2.0 | 0.00 | 0.01 | 0.01 | 99 | 1022.7 |
| 20260903071124 | 58 | 54 | 1.0 | 2.0 | 0.00 | 0.01 | 0.01 | 99 | 1022.5 |
| 20260903071003 | 58 | 58 | 1.0 | 2.0 | 0.00 | 0.01 | 0.01 | 99 | 1022.6 |
| 20260903070903 | 58 | 58 | 1.0 | 2.0 | 0.00 | 0.01 | 0.01 | 99 | 1022.6 |
| 20260903070803 | 58 | 57 | 1.0 | 2.0 | 0.00 | 0.01 | 0.01 | 99 | 1022.6 |
| 20260903070703 | 58 | 59 | 2.0 | 2.0 | 0.00 | 0.01 | 0.01 | 99 | 1022.6 |
| 20260903070603 | 58 | 59 | 2.0 | 2.0 | 0.00 | 0.01 | 0.01 | 99 | 1022.6 |
| 20260903070503 | 58 | 59 | 1.0 | 2.0 | 0.00 | 0.01 | 0.01 | 99 | 1022.7 |
| 20260903070403 | 58 | 59 | 1.0 | 2.0 | 0.00 | 0.01 | 0.01 | 99 | 1022.7 |
| 20260903070303 | 58 | 58 | 2.0 | 2.0 | 0.00 | 0.01 | 0.01 | 99 | 1022.7 |
| 20260903070203 | 58 | 57 | 1.0 | 2.0 | 0.00 | 0.01 | 0.01 | 99 | 1022.7 |
| 20260903070103 | 58 | 56 | 1.0 | 2.0 | 0.00 | 0.01 | 0.01 | 99 | 1022.8 |
| 20260903070003 | 58 | 63 | 1.0 | 3.0 | 0.00 | 0.01 | 0.01 | 99 | 1022.6 |
| 20260903065924 | 58 | 60 | 1.0 | 3.0 | 0.00 | 0.01 | 0.01 | 99 | 1022.6 |
| 20260903065803 | 58 | 63 | 1.0 | 3.0 | 0.00 | 0.01 | 0.01 | 99 | 1022.6 |
| 20260903065703 | 58 | 60 | 1.0 | 3.0 | 0.00 | 0.01 | 0.01 | 99 | 1022.6 |
| 20260903065603 | 58 | 61 | 1.0 | 3.0 | 0.00 | 0.01 | 0.01 | 99 | 1022.6 |
| 20260903065503 | 58 | 61 | 1.0 | 3.0 | 0.00 | 0.01 | 0.01 | 99 | 1022.6 |
| 20260903065424 | 58 | 61 | 1.0 | 3.0 | 0.00 | 0.01 | 0.01 | 99 | 1022.5 |
| 20260903065306 | 58 | 61 | 1.0 | 3.0 | 0.00 | 0.01 | 0.01 | 99 | 1022.6 |
| 20260903065224 | 58 | 60 | 1.0 | 3.0 | 0.00 | 0.01 | 0.01 | 99 | 1022.7 |
| 20260903065103 | 58 | 59 | 1.0 | 3.0 | 0.00 | 0.01 | 0.01 | 99 | 1022.6 |
| 20260903065024 | 59 | 68 | 2.0 | 3.0 | 0.00 | 0.01 | 0.01 | 99 | 1022.6 |
| 20260903064903 | 59 | 67 | 2.0 | 3.0 | 0.00 | 0.01 | 0.01 | 99 | 1022.5 |
| 20260903064803 | 59 | 65 | 1.0 | 3.0 | 0.00 | 0.01 | 0.01 | 99 | 1022.4 |
| 20260903064703 | 59 | 63 | 2.0 | 3.0 | 0.00 | 0.01 | 0.01 | 99 | 1022.7 |
| 20260903064603 | 59 | 64 | 1.0 | 3.0 | 0.00 | 0.01 | 0.01 | 99 | 1022.5 |
| 20260903064503 | 59 | 62 | 1.0 | 3.0 | 0.00 | 0.01 | 0.01 | 99 | 1022.6 |
| 20260903064403 | 59 | 62 | 1.0 | 3.0 | 0.00 | 0.01 | 0.01 | 99 | 1022.5 |
| 20260903064303 | 59 | 70 | 1.0 | 3.0 | 0.00 | 0.01 | 0.01 | 99 | 1022.5 |
| 20260903064203 | 59 | 72 | 1.0 | 3.0 | 0.00 | 0.01 | 0.01 | 99 | 1022.4 |
| 20260903064103 | 59 | 72 | 1.0 | 3.0 | 0.00 | 0.01 | 0.01 | 99 | 1022.5 |
| 20260903064024 | 59 | 72 | 1.0 | 3.0 | 0.00 | 0.01 | 0.01 | 99 | 1022.5 |
| 20260903063903 | 59 | 59 | 1.0 | 3.0 | 0.00 | 0.01 | 0.01 | 99 | 1022.4 |
| 20260903063824 | 59 | 62 | 1.0 | 3.0 | 0.00 | 0.01 | 0.01 | 99 | 1022.5 |
| 20260903063703 | 59 | 67 | 2.0 | 3.0 | 0.00 | 0.01 | 0.01 | 99 | 1022.4 |
| 20260903063603 | 59 | 77 | 2.0 | 3.0 | 0.00 | 0.01 | 0.01 | 99 | 1022.6 |
| 20260903063503 | 59 | 78 | 2.0 | 3.0 | 0.00 | 0.01 | 0.01 | 99 | 1022.5 |
| 20260903063424 | 59 | 81 | 2.0 | 3.0 | 0.00 | 0.01 | 0.01 | 99 | 1022.6 |
| 20260903063303 | 59 | 82 | 2.0 | 3.0 | 0.00 | 0.01 | 0.01 | 99 | 1022.4 |
| 20260903063203 | 59 | 81 | 2.0 | 3.0 | 0.00 | 0.01 | 0.01 | 99 | 1022.4 |
| 20260903063103 | 59 | 82 | 2.0 | 3.0 | 0.00 | 0.01 | 0.01 | 99 | 1022.6 |
| 20260903063003 | 59 | 83 | 2.0 | 3.0 | 0.00 | 0.01 | 0.01 | 99 | 1022.5 |
| 20260903062903 | 59 | 86 | 2.0 | 3.0 | 0.00 | 0.01 | 0.01 | 99 | 1022.6 |
| 20260903062803 | 59 | 90 | 2.0 | 3.0 | 0.00 | 0.01 | 0.01 | 99 | 1022.3 |
| 20260903062724 | 59 | 90 | 2.0 | 3.0 | 0.00 | 0.01 | 0.01 | 99 | 1022.3 |
| 20260903062624 | 59 | 89 | 2.0 | 3.0 | 0.00 | 0.01 | 0.01 | 99 | 1022.4 |
| 20260903062503 | 58 | 84 | 2.0 | 3.0 | 0.00 | 0.01 | 0.01 | 99 | 1022.4 |
| 20260903062403 | 58 | 84 | 2.0 | 3.0 | 0.00 | 0.01 | 0.01 | 99 | 1022.4 |
| 20260903062306 | 58 | 83 | 2.0 | 3.0 | 0.00 | 0.01 | 0.01 | 99 | 1022.4 |
| 20260903062203 | 58 | 83 | 2.0 | 3.0 | 0.00 | 0.01 | 0.01 | 99 | 1022.4 |
| 20260903062103 | 58 | 79 | 2.0 | 3.0 | 0.00 | 0.01 | 0.01 | 99 | 1022.3 |
| 20260903062003 | 58 | 77 | 2.0 | 3.0 | 0.00 | 0.01 | 0.01 | 99 | 1022.4 |
| 20260903061903 | 58 | 79 | 2.0 | 3.0 | 0.00 | 0.01 | 0.01 | 99 | 1022.6 |
| 20260903061803 | 58 | 76 | 2.0 | 3.0 | 0.00 | 0.01 | 0.01 | 99 | 1022.5 |
| 20260903061724 | 58 | 71 | 2.0 | 3.0 | 0.00 | 0.01 | 0.01 | 99 | 1022.5 |
| 20260903061603 | 58 | 71 | 2.0 | 3.0 | 0.00 | 0.01 | 0.01 | 99 | 1022.7 |
| 20260903061503 | 58 | 76 | 2.0 | 4.0 | 0.00 | 0.01 | 0.01 | 99 | 1022.4 |
| 20260903061403 | 58 | 74 | 2.0 | 4.0 | 0.00 | 0.01 | 0.01 | 99 | 1022.4 |
| 20260903061303 | 58 | 73 | 2.0 | 4.0 | 0.00 | 0.01 | 0.01 | 99 | 1022.4 |
| 20260903061203 | 58 | 74 | 2.0 | 4.0 | 0.00 | 0.01 | 0.01 | 99 | 1022.4 |
| 20260903061124 | 58 | 74 | 2.0 | 4.0 | 0.00 | 0.01 | 0.01 | 99 | 1022.4 |
| 20260903061003 | 58 | 74 | 2.0 | 4.0 | 0.00 | 0.01 | 0.01 | 99 | 1022.5 |
| 20260903060903 | 58 | 72 | 2.0 | 4.0 | 0.00 | 0.01 | 0.01 | 99 | 1022.4 |
| 20260903060803 | 58 | 72 | 2.0 | 4.0 | 0.00 | 0.01 | 0.01 | 99 | 1022.5 |
| 20260903060703 | 58 | 72 | 2.0 | 4.0 | 0.00 | 0.01 | 0.01 | 99 | 1022.5 |
| 20260903060603 | 58 | 65 | 2.0 | 4.0 | 0.01 | 0.01 | 0.01 | 99 | 1022.5 |
| 20260903060503 | 58 | 65 | 2.0 | 4.0 | 0.01 | 0.01 | 0.01 | 99 | 1022.5 |
| 20260903060424 | 58 | 54 | 2.0 | 2.0 | 0.01 | 0.01 | 0.01 | 99 | 1022.4 |
| 20260903060303 | 58 | 51 | 1.0 | 2.0 | 0.01 | 0.01 | 0.01 | 99 | 1022.6 |
| 20260903060203 | 58 | 49 | 1.0 | 2.0 | 0.01 | 0.01 | 0.01 | 99 | 1022.5 |
| 20260903060003 | 58 | 45 | 1.0 | 2.0 | 0.01 | 0.01 | 0.01 | 99 | 1022.4 |
| 20260903055903 | 58 | 45 | 1.0 | 2.0 | 0.01 | 0.01 | 0.01 | 99 | 1022.5 |
| 20260903055803 | 58 | 45 | 1.0 | 2.0 | 0.01 | 0.01 | 0.01 | 99 | 1022.5 |
| 20260903055724 | 58 | 41 | 1.0 | 2.0 | 0.01 | 0.01 | 0.01 | 99 | 1022.5 |
| 20260903055624 | 59 | 38 | 0.0 | 2.0 | 0.01 | 0.01 | 0.01 | 99 | 1022.5 |
| 20260903055524 | 59 | 38 | 0.0 | 2.0 | 0.01 | 0.01 | 0.01 | 99 | 1022.5 |
| 20260903055424 | 59 | 39 | 0.0 | 2.0 | 0.01 | 0.01 | 0.01 | 99 | 1022.5 |
| 20260903055306 | 59 | 35 | 0.0 | 1.0 | 0.01 | 0.01 | 0.01 | 99 | 1022.5 |
| 20260903055203 | 59 | 31 | 0.0 | 1.0 | 0.01 | 0.01 | 0.01 | 99 | 1022.4 |
| 20260903055103 | 59 | 0 | 0.0 | 0.0 | 0.01 | 0.01 | 0.01 | 99 | 1022.5 |
| 20260903055003 | 59 | 0 | 0.0 | 0.0 | 0.01 | 0.01 | 0.01 | 99 | 1022.6 |
| 20260903054903 | 59 | 0 | 0.0 | 0.0 | 0.01 | 0.01 | 0.01 | 99 | 1022.6 |
| 20260903054803 | 59 | 0 | 0.0 | 0.0 | 0.01 | 0.01 | 0.01 | 99 | 1022.4 |
| 20260903054703 | 59 | 0 | 0.0 | 0.0 | 0.01 | 0.01 | 0.01 | 99 | 1022.5 |
| 20260903054603 | 59 | 0 | 0.0 | 0.0 | 0.01 | 0.01 | 0.01 | 99 | 1022.4 |
| 20260903054503 | 59 | 23 | 0.0 | 1.0 | 0.01 | 0.01 | 0.01 | 99 | 1022.4 |
| 20260903054403 | 59 | 22 | 0.0 | 1.0 | 0.01 | 0.01 | 0.01 | 99 | 1022.5 |
| 20260903054303 | 59 | 22 | 0.0 | 1.0 | 0.01 | 0.01 | 0.01 | 99 | 1022.5 |
| 20260903054203 | 59 | 12 | 0.0 | 2.0 | 0.01 | 0.01 | 0.01 | 99 | 1022.4 |
| 20260903054103 | 59 | 12 | 0.0 | 2.0 | 0.01 | 0.01 | 0.01 | 99 | 1022.4 |
| 20260903054003 | 59 | 12 | 0.0 | 2.0 | 0.01 | 0.01 | 0.01 | 99 | 1022.4 |
| 20260903053903 | 59 | 10 | 0.0 | 2.0 | 0.01 | 0.01 | 0.01 | 99 | 1022.4 |
| 20260903053824 | 59 | 10 | 0.0 | 2.0 | 0.01 | 0.01 | 0.01 | 99 | 1022.4 |
| 20260903053703 | 59 | 9 | 1.0 | 2.0 | 0.01 | 0.01 | 0.01 | 99 | 1022.5 |
| 20260903053603 | 60 | 10 | 1.0 | 2.0 | 0.01 | 0.01 | 0.01 | 99 | 1022.5 |
| 20260903053503 | 60 | 10 | 1.0 | 2.0 | 0.01 | 0.01 | 0.01 | 99 | 1022.4 |
| 20260903053403 | 60 | 8 | 1.0 | 2.0 | 0.01 | 0.01 | 0.01 | 99 | 1022.3 |
| 20260903053303 | 60 | 8 | 1.0 | 2.0 | 0.01 | 0.01 | 0.01 | 99 | 1022.3 |
| 20260903053224 | 59 | 8 | 1.0 | 2.0 | 0.01 | 0.01 | 0.01 | 99 | 1022.4 |
| 20260903053124 | 59 | 12 | 0.0 | 2.0 | 0.01 | 0.01 | 0.01 | 99 | 1022.3 |
| 20260903053024 | 60 | 14 | 0.0 | 2.0 | 0.01 | 0.01 | 0.01 | 99 | 1022.4 |
| 20260903052903 | 60 | 14 | 0.0 | 2.0 | 0.01 | 0.01 | 0.01 | 99 | 1022.4 |
| 20260903052803 | 60 | 15 | 0.0 | 2.0 | 0.01 | 0.01 | 0.01 | 99 | 1022.4 |
| 20260903052703 | 60 | 19 | 0.0 | 1.0 | 0.01 | 0.01 | 0.01 | 99 | 1022.3 |
| 20260903052603 | 60 | 21 | 0.0 | 1.0 | 0.01 | 0.01 | 0.01 | 99 | 1022.4 |
| 20260903052524 | 59 | 22 | 0.0 | 1.0 | 0.01 | 0.01 | 0.01 | 99 | 1022.4 |
| 20260903052403 | 59 | 23 | 0.0 | 1.0 | 0.01 | 0.01 | 0.01 | 99 | 1022.4 |
| 20260903052306 | 60 | 23 | 0.0 | 1.0 | 0.01 | 0.01 | 0.01 | 99 | 1022.4 |
| 20260903052203 | 60 | 23 | 0.0 | 1.0 | 0.01 | 0.01 | 0.01 | 99 | 1022.4 |
| 20260903052103 | 60 | 22 | 0.0 | 1.0 | 0.01 | 0.01 | 0.01 | 99 | 1022.5 |
| 20260903052003 | 60 | 20 | 0.0 | 1.0 | 0.01 | 0.01 | 0.01 | 99 | 1022.5 |
| 20260903051903 | 60 | 20 | 0.0 | 1.0 | 0.01 | 0.01 | 0.01 | 99 | 1022.5 |
| 20260903051803 | 60 | 20 | 0.0 | 1.0 | 0.01 | 0.01 | 0.01 | 99 | 1022.4 |
| 20260903051703 | 60 | 20 | 0.0 | 1.0 | 0.01 | 0.01 | 0.01 | 99 | 1022.4 |
| 20260903051603 | 60 | 20 | 0.0 | 1.0 | 0.01 | 0.01 | 0.01 | 99 | 1022.4 |
| 20260903051503 | 60 | 20 | 0.0 | 1.0 | 0.01 | 0.01 | 0.01 | 99 | 1022.4 |
| 20260903051403 | 60 | 0 | 0.0 | 0.0 | 0.01 | 0.01 | 0.01 | 99 | 1022.4 |
| 20260903051303 | 60 | 0 | 0.0 | 0.0 | 0.01 | 0.01 | 0.01 | 99 | 1022.4 |
| 20260903051203 | 60 | 0 | 0.0 | 0.0 | 0.01 | 0.01 | 0.01 | 99 | 1022.3 |
| 20260903051103 | 60 | 0 | 0.0 | 0.0 | 0.01 | 0.01 | 0.01 | 99 | 1022.5 |
| 20260903051003 | 60 | 0 | 0.0 | 0.0 | 0.01 | 0.01 | 0.01 | 99 | 1022.4 |
| 20260903050903 | 60 | 0 | 0.0 | 0.0 | 0.01 | 0.01 | 0.01 | 99 | 1022.4 |
| 20260903050803 | 60 | 0 | 0.0 | 0.0 | 0.01 | 0.01 | 0.01 | 99 | 1022.4 |
| 20260903050703 | 60 | 41 | 0.0 | 1.0 | 0.01 | 0.01 | 0.01 | 99 | 1022.3 |
| 20260903050603 | 60 | 40 | 0.0 | 1.0 | 0.00 | 0.00 | 0.00 | 99 | 1022.3 |
| 20260903050503 | 60 | 38 | 0.0 | 1.0 | 0.00 | 0.00 | 0.00 | 99 | 1022.4 |
| 20260903050403 | 60 | 41 | 0.0 | 2.0 | 0.00 | 0.00 | 0.00 | 99 | 1022.5 |
| 20260903050303 | 60 | 39 | 0.0 | 2.0 | 0.00 | 0.00 | 0.00 | 99 | 1022.4 |
| 20260903050203 | 60 | 39 | 0.0 | 2.0 | 0.00 | 0.00 | 0.00 | 99 | 1022.4 |
| 20260903050024 | 60 | 39 | 0.0 | 2.0 | 0.00 | 0.00 | 0.00 | 99 | 1022.5 |
| 20260903045903 | 60 | 39 | 0.0 | 2.0 | 0.00 | 0.00 | 0.00 | 99 | 1022.3 |
| 20260903045803 | 60 | 39 | 1.0 | 2.0 | 0.00 | 0.00 | 0.00 | 99 | 1022.4 |
| 20260903045704 | 60 | 39 | 1.0 | 2.0 | 0.00 | 0.00 | 0.00 | 99 | 1022.4 |
| 20260903045603 | 60 | 39 | 1.0 | 2.0 | 0.00 | 0.00 | 0.00 | 99 | 1022.5 |
| 20260903045503 | 60 | 46 | 1.0 | 2.0 | 0.00 | 0.00 | 0.00 | 99 | 1022.4 |
| 20260903045403 | 60 | 49 | 1.0 | 2.0 | 0.00 | 0.00 | 0.00 | 99 | 1022.3 |
| 20260903045306 | 60 | 49 | 1.0 | 2.0 | 0.00 | 0.00 | 0.00 | 99 | 1022.6 |
| 20260903045203 | 60 | 51 | 1.0 | 2.0 | 0.00 | 0.00 | 0.00 | 99 | 1022.4 |
| 20260903045124 | 60 | 51 | 1.0 | 2.0 | 0.00 | 0.00 | 0.00 | 99 | 1022.4 |
| 20260903045003 | 60 | 49 | 1.0 | 2.0 | 0.00 | 0.00 | 0.00 | 99 | 1022.7 |
| 20260903044903 | 60 | 49 | 1.0 | 2.0 | 0.00 | 0.00 | 0.00 | 99 | 1022.6 |
| 20260903044803 | 60 | 49 | 1.0 | 2.0 | 0.00 | 0.00 | 0.00 | 99 | 1022.5 |
| 20260903044705 | 60 | 48 | 1.0 | 2.0 | 0.00 | 0.00 | 0.00 | 99 | 1022.6 |
| 20260903044603 | 60 | 48 | 1.0 | 2.0 | 0.00 | 0.00 | 0.00 | 99 | 1022.7 |
| 20260903044503 | 60 | 48 | 1.0 | 2.0 | 0.00 | 0.00 | 0.00 | 99 | 1022.7 |
| 20260903044404 | 60 | 43 | 1.0 | 2.0 | 0.00 | 0.00 | 0.00 | 99 | 1022.6 |
| 20260903044303 | 60 | 41 | 1.0 | 2.0 | 0.00 | 0.00 | 0.00 | 99 | 1022.7 |
| 20260903044203 | 59 | 40 | 1.0 | 2.0 | 0.00 | 0.00 | 0.00 | 99 | 1023.0 |
| 20260903044103 | 59 | 38 | 1.0 | 2.0 | 0.00 | 0.00 | 0.00 | 99 | 1022.7 |
| 20260903044003 | 59 | 38 | 1.0 | 2.0 | 0.00 | 0.00 | 0.00 | 99 | 1022.9 |
| 20260903043903 | 59 | 37 | 1.0 | 2.0 | 0.00 | 0.00 | 0.00 | 99 | 1022.7 |
| 20260903043803 | 59 | 36 | 1.0 | 2.0 | 0.00 | 0.00 | 0.00 | 99 | 1022.8 |
| 20260903043703 | 60 | 36 | 1.0 | 2.0 | 0.00 | 0.00 | 0.00 | 99 | 1022.7 |
| 20260903043603 | 59 | 35 | 1.0 | 1.0 | 0.00 | 0.00 | 0.00 | 99 | 1022.8 |
| 20260903043503 | 59 | 37 | 1.0 | 2.0 | 0.00 | 0.00 | 0.00 | 99 | 1022.7 |
| 20260903043403 | 59 | 37 | 1.0 | 2.0 | 0.00 | 0.00 | 0.00 | 99 | 1022.8 |
| 20260903043303 | 59 | 39 | 1.0 | 2.0 | 0.00 | 0.00 | 0.00 | 99 | 1022.9 |
| 20260903043203 | 59 | 40 | 1.0 | 2.0 | 0.00 | 0.00 | 0.00 | 99 | 1022.8 |
| 20260903043103 | 59 | 42 | 1.0 | 2.0 | 0.00 | 0.00 | 0.00 | 99 | 1022.8 |
| 20260903043003 | 59 | 44 | 1.0 | 2.0 | 0.00 | 0.00 | 0.00 | 99 | 1022.7 |
| 20260903042924 | 59 | 44 | 1.0 | 2.0 | 0.00 | 0.00 | 0.00 | 99 | 1022.7 |
| 20260903042803 | 59 | 46 | 1.0 | 2.0 | 0.00 | 0.00 | 0.00 | 99 | 1022.7 |
| 20260903042703 | 59 | 48 | 1.0 | 2.0 | 0.00 | 0.00 | 0.00 | 99 | 1022.7 |
| 20260903042603 | 59 | 48 | 1.0 | 2.0 | 0.00 | 0.00 | 0.00 | 99 | 1022.8 |
| 20260903042525 | 59 | 49 | 1.0 | 2.0 | 0.00 | 0.00 | 0.00 | 99 | 1022.8 |
| 20260903042403 | 59 | 49 | 1.0 | 2.0 | 0.00 | 0.00 | 0.00 | 99 | 1022.7 |
| 20260903042306 | 59 | 51 | 2.0 | 2.0 | 0.00 | 0.00 | 0.00 | 99 | 1022.8 |
| 20260903042203 | 59 | 50 | 1.0 | 2.0 | 0.00 | 0.00 | 0.00 | 99 | 1022.9 |
| 20260903042103 | 59 | 50 | 1.0 | 2.0 | 0.00 | 0.00 | 0.00 | 99 | 1022.9 |
| 20260903042003 | 59 | 48 | 1.0 | 2.0 | 0.00 | 0.00 | 0.00 | 99 | 1022.9 |
| 20260903041903 | 59 | 48 | 1.0 | 2.0 | 0.00 | 0.00 | 0.00 | 99 | 1022.7 |
| 20260903041803 | 59 | 46 | 1.0 | 2.0 | 0.00 | 0.00 | 0.00 | 99 | 1023.0 |
| 20260903041724 | 59 | 46 | 1.0 | 2.0 | 0.00 | 0.00 | 0.00 | 99 | 1023.0 |
| 20260903041603 | 59 | 51 | 1.0 | 3.0 | 0.00 | 0.00 | 0.00 | 99 | 1023.0 |
| 20260903041524 | 59 | 51 | 1.0 | 3.0 | 0.00 | 0.00 | 0.00 | 99 | 1023.0 |
| 20260903041424 | 59 | 52 | 1.0 | 3.0 | 0.00 | 0.00 | 0.00 | 99 | 1022.9 |
| 20260903041324 | 60 | 52 | 1.0 | 3.0 | 0.00 | 0.00 | 0.00 | 99 | 1022.9 |
| 20260903041203 | 60 | 51 | 1.0 | 3.0 | 0.00 | 0.00 | 0.00 | 99 | 1023.0 |
| 20260903041103 | 60 | 58 | 1.0 | 3.0 | 0.00 | 0.00 | 0.00 | 99 | 1023.1 |
| 20260903041003 | 60 | 59 | 2.0 | 3.0 | 0.00 | 0.00 | 0.00 | 99 | 1022.9 |
| 20260903040924 | 60 | 69 | 2.0 | 4.0 | 0.00 | 0.00 | 0.00 | 99 | 1023.0 |
| 20260903040824 | 60 | 69 | 2.0 | 4.0 | 0.00 | 0.00 | 0.00 | 99 | 1022.9 |
| 20260903040703 | 60 | 72 | 2.0 | 4.0 | 0.00 | 0.00 | 0.00 | 99 | 1022.8 |
| 20260903040603 | 60 | 70 | 2.0 | 4.0 | 0.00 | 0.00 | 0.00 | 99 | 1022.9 |
| 20260903040524 | 60 | 71 | 2.0 | 4.0 | 0.00 | 0.00 | 0.00 | 99 | 1022.9 |
| 20260903040403 | 60 | 72 | 2.0 | 4.0 | 0.00 | 0.00 | 0.00 | 99 | 1023.0 |
| 20260903040324 | 60 | 72 | 2.0 | 4.0 | 0.00 | 0.00 | 0.00 | 99 | 1023.0 |
| 20260903040203 | 60 | 72 | 2.0 | 4.0 | 0.00 | 0.00 | 0.00 | 99 | 1023.0 |
| 20260903040103 | 60 | 69 | 2.0 | 4.0 | 0.00 | 0.00 | 0.00 | 99 | 1023.1 |
| 20260903040003 | 60 | 69 | 2.0 | 4.0 | 0.00 | 0.00 | 0.00 | 99 | 1023.0 |
| 20260903035903 | 60 | 63 | 2.0 | 3.0 | 0.00 | 0.00 | 0.00 | 99 | 1022.8 |
| 20260903035803 | 60 | 63 | 2.0 | 3.0 | 0.00 | 0.00 | 0.00 | 99 | 1022.8 |
| 20260903035703 | 60 | 63 | 2.0 | 3.0 | 0.00 | 0.00 | 0.00 | 99 | 1023.0 |
| 20260903035603 | 60 | 59 | 2.0 | 2.0 | 0.00 | 0.00 | 0.00 | 99 | 1023.0 |
| 20260903035503 | 60 | 59 | 2.0 | 2.0 | 0.00 | 0.00 | 0.00 | 99 | 1023.0 |
| 20260903035403 | 60 | 58 | 2.0 | 2.0 | 0.00 | 0.00 | 0.00 | 99 | 1022.9 |
| 20260903035324 | 60 | 57 | 2.0 | 2.0 | 0.00 | 0.00 | 0.00 | 99 | 1023.0 |
| 20260903035203 | 60 | 57 | 2.0 | 2.0 | 0.00 | 0.00 | 0.00 | 99 | 1023.0 |
| 20260903035103 | 60 | 55 | 2.0 | 2.0 | 0.00 | 0.00 | 0.00 | 99 | 1023.0 |
| 20260903035024 | 60 | 56 | 2.0 | 2.0 | 0.00 | 0.00 | 0.00 | 99 | 1023.0 |
| 20260903034903 | 60 | 55 | 2.0 | 2.0 | 0.00 | 0.00 | 0.00 | 99 | 1023.0 |
| 20260903034803 | 60 | 53 | 2.0 | 2.0 | 0.00 | 0.00 | 0.00 | 99 | 1023.2 |
| 20260903034703 | 60 | 51 | 1.0 | 2.0 | 0.00 | 0.00 | 0.00 | 99 | 1022.9 |
| 20260903034603 | 60 | 49 | 1.0 | 2.0 | 0.00 | 0.00 | 0.00 | 99 | 1023.0 |
| 20260903034503 | 60 | 47 | 1.0 | 2.0 | 0.00 | 0.00 | 0.00 | 99 | 1023.2 |
| 20260903034403 | 60 | 50 | 1.0 | 2.0 | 0.00 | 0.00 | 0.00 | 99 | 1023.1 |
| 20260903034303 | 60 | 51 | 1.0 | 2.0 | 0.00 | 0.00 | 0.00 | 99 | 1023.0 |
| 20260903034203 | 60 | 51 | 1.0 | 2.0 | 0.00 | 0.00 | 0.00 | 99 | 1023.0 |
| 20260903034103 | 60 | 51 | 2.0 | 2.0 | 0.00 | 0.00 | 0.00 | 99 | 1023.1 |
| 20260903034003 | 60 | 52 | 2.0 | 2.0 | 0.00 | 0.00 | 0.00 | 99 | 1023.1 |
| 20260903033924 | 60 | 51 | 2.0 | 2.0 | 0.00 | 0.00 | 0.00 | 99 | 1023.1 |
| 20260903033803 | 60 | 50 | 1.0 | 2.0 | 0.00 | 0.00 | 0.00 | 99 | 1023.0 |
| 20260903033703 | 60 | 58 | 2.0 | 3.0 | 0.00 | 0.00 | 0.00 | 99 | 1023.1 |
| 20260903033625 | 60 | 61 | 2.0 | 3.0 | 0.00 | 0.00 | 0.00 | 99 | 1023.2 |
| 20260903033503 | 60 | 67 | 2.0 | 3.0 | 0.00 | 0.00 | 0.00 | 99 | 1023.2 |
| 20260903033403 | 60 | 69 | 2.0 | 3.0 | 0.00 | 0.00 | 0.00 | 99 | 1023.2 |
| 20260903033324 | 60 | 68 | 2.0 | 3.0 | 0.00 | 0.00 | 0.00 | 99 | 1023.2 |
| 20260903033203 | 60 | 68 | 2.0 | 3.0 | 0.00 | 0.00 | 0.00 | 99 | 1023.1 |
| 20260903033103 | 60 | 69 | 2.0 | 3.0 | 0.00 | 0.00 | 0.00 | 99 | 1023.0 |
| 20260903033003 | 60 | 68 | 2.0 | 3.0 | 0.00 | 0.00 | 0.00 | 99 | 1023.3 |
| 20260903032924 | 60 | 68 | 2.0 | 3.0 | 0.00 | 0.00 | 0.00 | 99 | 1023.3 |
| 20260903032803 | 60 | 69 | 2.0 | 3.0 | 0.00 | 0.00 | 0.00 | 99 | 1023.1 |
| 20260903032703 | 60 | 63 | 2.0 | 3.0 | 0.00 | 0.00 | 0.00 | 99 | 1023.0 |
| 20260903032603 | 60 | 63 | 2.0 | 3.0 | 0.00 | 0.00 | 0.00 | 99 | 1023.0 |
| 20260903032503 | 60 | 61 | 2.0 | 3.0 | 0.00 | 0.00 | 0.00 | 99 | 1022.9 |
| 20260903032403 | 60 | 54 | 1.0 | 2.0 | 0.00 | 0.00 | 0.00 | 99 | 1023.1 |
| 20260903032324 | 60 | 51 | 1.0 | 2.0 | 0.00 | 0.00 | 0.00 | 99 | 1023.2 |
| 20260903032224 | 60 | 50 | 1.0 | 2.0 | 0.00 | 0.00 | 0.00 | 99 | 1023.0 |
| 20260903032124 | 60 | 50 | 1.0 | 2.0 | 0.00 | 0.00 | 0.00 | 99 | 1023.2 |
| 20260903032024 | 60 | 47 | 1.0 | 2.0 | 0.00 | 0.00 | 0.00 | 99 | 1023.2 |
| 20260903031903 | 60 | 46 | 1.0 | 2.0 | 0.00 | 0.00 | 0.00 | 99 | 1023.2 |
| 20260903031803 | 60 | 41 | 1.0 | 2.0 | 0.00 | 0.00 | 0.00 | 99 | 1023.3 |
| 20260903031703 | 60 | 39 | 1.0 | 2.0 | 0.00 | 0.00 | 0.00 | 99 | 1023.2 |
| 20260903031603 | 60 | 38 | 1.0 | 1.0 | 0.00 | 0.00 | 0.00 | 99 | 1023.2 |
| 20260903031503 | 60 | 40 | 1.0 | 2.0 | 0.00 | 0.00 | 0.00 | 99 | 1023.2 |
| 20260903031403 | 60 | 43 | 1.0 | 2.0 | 0.00 | 0.00 | 0.00 | 99 | 1023.1 |
| 20260903031324 | 60 | 44 | 1.0 | 2.0 | 0.00 | 0.00 | 0.00 | 99 | 1023.3 |
| 20260903031203 | 60 | 44 | 1.0 | 2.0 | 0.00 | 0.00 | 0.00 | 99 | 1023.2 |
| 20260903031103 | 60 | 44 | 1.0 | 2.0 | 0.00 | 0.00 | 0.00 | 99 | 1023.1 |
| 20260903031004 | 60 | 45 | 1.0 | 2.0 | 0.00 | 0.00 | 0.00 | 99 | 1023.1 |
| 20260903030903 | 60 | 54 | 1.0 | 3.0 | 0.00 | 0.00 | 0.00 | 99 | 1023.2 |
| 20260903030802 | 60 | 57 | 2.0 | 3.0 | 0.00 | 0.00 | 0.00 | 99 | 1023.3 |
| 20260903030702 | 60 | 57 | 1.0 | 3.0 | 0.00 | 0.00 | 0.00 | 99 | 1023.5 |
| 20260903030603 | 60 | 56 | 1.0 | 3.0 | 0.00 | 0.00 | 0.00 | 99 | 1023.1 |
| 20260903030503 | 60 | 56 | 1.0 | 3.0 | 0.00 | 0.00 | 0.00 | 99 | 1023.3 |
| 20260903030403 | 60 | 55 | 1.0 | 3.0 | 0.00 | 0.00 | 0.00 | 99 | 1023.2 |
| 20260903030303 | 60 | 55 | 1.0 | 3.0 | 0.00 | 0.00 | 0.00 | 99 | 1023.3 |
| 20260903030224 | 60 | 55 | 1.0 | 3.0 | 0.00 | 0.00 | 0.00 | 99 | 1023.3 |
| 20260903030003 | 60 | 56 | 1.0 | 3.0 | 0.00 | 0.00 | 0.00 | 99 | 1023.2 |
| 20260903025902 | 60 | 56 | 1.0 | 3.0 | 0.00 | 0.00 | 0.00 | 99 | 1023.2 |
| 20260903025802 | 60 | 47 | 1.0 | 3.0 | 0.00 | 0.00 | 0.00 | 99 | 1023.2 |
| 20260903025703 | 60 | 38 | 1.0 | 1.0 | 0.00 | 0.00 | 0.00 | 99 | 1023.1 |
| 20260903025603 | 60 | 38 | 1.0 | 1.0 | 0.00 | 0.00 | 0.00 | 99 | 1023.5 |
| 20260903025503 | 60 | 38 | 1.0 | 1.0 | 0.00 | 0.00 | 0.00 | 99 | 1023.6 |
| 20260903025403 | 60 | 38 | 1.0 | 1.0 | 0.00 | 0.00 | 0.00 | 99 | 1023.6 |
| 20260903025305 | 60 | 38 | 1.0 | 1.0 | 0.00 | 0.00 | 0.00 | 99 | 1023.6 |
| 20260903025202 | 60 | 38 | 1.0 | 1.0 | 0.00 | 0.00 | 0.00 | 99 | 1023.3 |
| 20260903025103 | 60 | 38 | 1.0 | 1.0 | 0.00 | 0.00 | 0.00 | 99 | 1023.5 |
| 20260903025003 | 60 | 38 | 1.0 | 1.0 | 0.00 | 0.00 | 0.00 | 99 | 1023.5 |
| 20260903024903 | 60 | 38 | 0.0 | 1.0 | 0.00 | 0.00 | 0.00 | 99 | 1023.5 |
| 20260903024803 | 60 | 38 | 0.0 | 1.0 | 0.00 | 0.00 | 0.00 | 99 | 1023.6 |
| 20260903024702 | 60 | 38 | 0.0 | 1.0 | 0.00 | 0.00 | 0.00 | 99 | 1023.6 |
| 20260903024603 | 60 | 38 | 0.0 | 1.0 | 0.00 | 0.00 | 0.00 | 99 | 1023.6 |
| 20260903024503 | 60 | 38 | 0.0 | 1.0 | 0.00 | 0.00 | 0.00 | 99 | 1023.6 |
| 20260903024403 | 60 | 38 | 0.0 | 1.0 | 0.00 | 0.00 | 0.00 | 99 | 1023.7 |
| 20260903024303 | 60 | 38 | 0.0 | 1.0 | 0.00 | 0.00 | 0.00 | 99 | 1023.6 |
| 20260903024224 | 60 | 38 | 0.0 | 1.0 | 0.00 | 0.00 | 0.00 | 99 | 1023.5 |
| 20260903024103 | 60 | 38 | 1.0 | 1.0 | 0.00 | 0.00 | 0.00 | 99 | 1023.7 |
| 20260903024002 | 60 | 38 | 1.0 | 1.0 | 0.00 | 0.00 | 0.00 | 99 | 1023.7 |
| 20260903023903 | 60 | 37 | 1.0 | 1.0 | 0.00 | 0.00 | 0.00 | 99 | 1023.7 |
| 20260903023802 | 60 | 37 | 1.0 | 1.0 | 0.00 | 0.00 | 0.00 | 99 | 1023.7 |
| 20260903023703 | 60 | 37 | 1.0 | 1.0 | 0.00 | 0.00 | 0.00 | 99 | 1023.5 |
| 20260903023603 | 60 | 36 | 1.0 | 1.0 | 0.00 | 0.00 | 0.00 | 99 | 1023.7 |
| 20260903023503 | 60 | 36 | 1.0 | 1.0 | 0.00 | 0.00 | 0.00 | 99 | 1023.6 |
| 20260903023403 | 60 | 36 | 1.0 | 1.0 | 0.00 | 0.00 | 0.00 | 99 | 1023.6 |
| 20260903023303 | 60 | 35 | 0.0 | 1.0 | 0.00 | 0.00 | 0.00 | 99 | 1023.7 |
| 20260903023224 | 60 | 35 | 0.0 | 1.0 | 0.00 | 0.00 | 0.00 | 99 | 1023.7 |
| 20260903023124 | 60 | 34 | 0.0 | 1.0 | 0.00 | 0.00 | 0.00 | 99 | 1023.6 |
| 20260903023002 | 60 | 33 | 0.0 | 1.0 | 0.00 | 0.00 | 0.00 | 99 | 1023.6 |
| 20260903022902 | 60 | 32 | 0.0 | 1.0 | 0.00 | 0.00 | 0.00 | 99 | 1023.7 |
| 20260903022804 | 60 | 32 | 0.0 | 1.0 | 0.00 | 0.00 | 0.00 | 99 | 1023.7 |
| 20260903022703 | 60 | 32 | 0.0 | 1.0 | 0.00 | 0.00 | 0.00 | 99 | 1023.8 |
| 20260903022603 | 60 | 32 | 0.0 | 1.0 | 0.00 | 0.00 | 0.00 | 99 | 1023.7 |
| 20260903022503 | 60 | 32 | 0.0 | 2.0 | 0.00 | 0.00 | 0.00 | 99 | 1023.8 |
| 20260903022403 | 60 | 32 | 0.0 | 2.0 | 0.00 | 0.00 | 0.00 | 99 | 1023.8 |
| 20260903022324 | 60 | 32 | 1.0 | 2.0 | 0.00 | 0.00 | 0.00 | 99 | 1023.7 |
| 20260903022203 | 60 | 32 | 1.0 | 2.0 | 0.00 | 0.00 | 0.00 | 99 | 1023.8 |
| 20260903022103 | 60 | 32 | 1.0 | 2.0 | 0.00 | 0.00 | 0.00 | 99 | 1023.7 |
| 20260903022024 | 60 | 32 | 1.0 | 2.0 | 0.00 | 0.00 | 0.00 | 99 | 1023.8 |
| 20260903021924 | 60 | 32 | 1.0 | 2.0 | 0.00 | 0.00 | 0.00 | 99 | 1023.8 |
| 20260903021802 | 60 | 32 | 1.0 | 2.0 | 0.00 | 0.00 | 0.00 | 99 | 1023.7 |
| 20260903021702 | 60 | 32 | 1.0 | 2.0 | 0.00 | 0.00 | 0.00 | 99 | 1023.7 |
| 20260903021605 | 60 | 32 | 0.0 | 2.0 | 0.00 | 0.00 | 0.00 | 99 | 1023.7 |
| 20260903021502 | 60 | 32 | 0.0 | 1.0 | 0.00 | 0.00 | 0.00 | 99 | 1023.7 |
| 20260903021424 | 60 | 32 | 0.0 | 1.0 | 0.00 | 0.00 | 0.00 | 99 | 1023.7 |
| 20260903021303 | 60 | 32 | 0.0 | 1.0 | 0.00 | 0.00 | 0.00 | 99 | 1023.8 |
| 20260903021224 | 60 | 31 | 0.0 | 1.0 | 0.00 | 0.00 | 0.00 | 99 | 1023.7 |
| 20260903021124 | 60 | 30 | 0.0 | 1.0 | 0.00 | 0.00 | 0.00 | 99 | 1023.8 |
| 20260903021003 | 60 | 30 | 0.0 | 1.0 | 0.00 | 0.00 | 0.00 | 99 | 1023.8 |
| 20260903020903 | 60 | 0 | 0.0 | 0.0 | 0.00 | 0.00 | 0.00 | 99 | 1023.9 |
| 20260903020803 | 60 | 0 | 0.0 | 0.0 | 0.00 | 0.00 | 0.00 | 99 | 1023.9 |
| 20260903020703 | 60 | 0 | 0.0 | 0.0 | 0.00 | 0.00 | 0.00 | 99 | 1023.8 |
| 20260903020603 | 60 | 0 | 0.0 | 0.0 | 0.00 | 0.00 | 0.00 | 99 | 1024.0 |
| 20260903020524 | 60 | 0 | 0.0 | 0.0 | 0.00 | 0.00 | 0.00 | 99 | 1023.9 |
| 20260903020403 | 60 | 0 | 0.0 | 0.0 | 0.00 | 0.00 | 0.00 | 99 | 1023.8 |
| 20260903020302 | 60 | 0 | 0.0 | 0.0 | 0.00 | 0.00 | 0.00 | 99 | 1023.9 |
| 20260903020202 | 60 | 0 | 0.0 | 0.0 | 0.00 | 0.00 | 0.00 | 99 | 1024.0 |
| 20260903020024 | 60 | 0 | 0.0 | 0.0 | 0.00 | 0.00 | 0.00 | 99 | 1023.8 |
| 20260903015924 | 60 | 0 | 0.0 | 0.0 | 0.00 | 0.00 | 0.00 | 99 | 1023.6 |
| 20260903015803 | 60 | 0 | 0.0 | 0.0 | 0.00 | 0.00 | 0.00 | 99 | 1023.9 |
| 20260903015703 | 60 | 30 | 0.0 | 1.0 | 0.00 | 0.00 | 0.00 | 99 | 1023.8 |
| 20260903015602 | 60 | 30 | 0.0 | 1.0 | 0.00 | 0.00 | 0.00 | 99 | 1023.7 |
| 20260903015503 | 60 | 30 | 0.0 | 1.0 | 0.00 | 0.00 | 0.00 | 99 | 1023.8 |
| 20260903015424 | 60 | 30 | 0.0 | 1.0 | 0.00 | 0.00 | 0.00 | 99 | 1023.8 |
| 20260903015305 | 60 | 30 | 0.0 | 1.0 | 0.00 | 0.00 | 0.00 | 99 | 1023.7 |
| 20260903015203 | 60 | 30 | 0.0 | 1.0 | 0.00 | 0.00 | 0.00 | 99 | 1023.7 |
| 20260903015103 | 60 | 30 | 0.0 | 1.0 | 0.00 | 0.00 | 0.00 | 99 | 1023.7 |
| 20260903015002 | 60 | 30 | 0.0 | 1.0 | 0.00 | 0.00 | 0.00 | 99 | 1023.7 |
| 20260903014924 | 60 | 31 | 0.0 | 1.0 | 0.00 | 0.00 | 0.00 | 99 | 1023.8 |
| 20260903014803 | 60 | 31 | 0.0 | 1.0 | 0.00 | 0.00 | 0.00 | 99 | 1023.8 |
| 20260903014724 | 60 | 31 | 0.0 | 1.0 | 0.00 | 0.00 | 0.00 | 99 | 1023.7 |
| 20260903014624 | 60 | 32 | 1.0 | 1.0 | 0.00 | 0.00 | 0.00 | 99 | 1023.7 |
| 20260903014503 | 60 | 32 | 1.0 | 1.0 | 0.00 | 0.00 | 0.00 | 99 | 1023.9 |
| 20260903014403 | 60 | 32 | 1.0 | 1.0 | 0.00 | 0.00 | 0.00 | 99 | 1023.7 |
| 20260903014303 | 60 | 32 | 1.0 | 1.0 | 0.00 | 0.00 | 0.00 | 99 | 1023.8 |
| 20260903014203 | 60 | 31 | 1.0 | 1.0 | 0.00 | 0.00 | 0.00 | 99 | 1023.8 |
| 20260903014124 | 60 | 31 | 1.0 | 1.0 | 0.00 | 0.00 | 0.00 | 99 | 1023.8 |
| 20260903014003 | 60 | 31 | 1.0 | 1.0 | 0.00 | 0.00 | 0.00 | 99 | 1023.9 |
| 20260903013903 | 60 | 30 | 1.0 | 1.0 | 0.00 | 0.00 | 0.00 | 99 | 1023.7 |
| 20260903013803 | 60 | 30 | 1.0 | 1.0 | 0.00 | 0.00 | 0.00 | 99 | 1023.7 |
| 20260903013703 | 60 | 30 | 1.0 | 1.0 | 0.00 | 0.00 | 0.00 | 99 | 1024.0 |
| 20260903013603 | 60 | 30 | 0.0 | 1.0 | 0.00 | 0.00 | 0.00 | 99 | 1024.0 |
| 20260903013503 | 60 | 29 | 0.0 | 1.0 | 0.00 | 0.00 | 0.00 | 99 | 1023.8 |
| 20260903013402 | 60 | 29 | 0.0 | 1.0 | 0.00 | 0.00 | 0.00 | 99 | 1023.9 |
| 20260903013302 | 60 | 28 | 0.0 | 1.0 | 0.00 | 0.00 | 0.00 | 99 | 1024.0 |
| 20260903013203 | 60 | 27 | 0.0 | 1.0 | 0.00 | 0.00 | 0.00 | 99 | 1023.7 |
| 20260903013103 | 60 | 27 | 0.0 | 1.0 | 0.00 | 0.00 | 0.00 | 99 | 1023.9 |
| 20260903013004 | 61 | 27 | 0.0 | 1.0 | 0.00 | 0.00 | 0.00 | 99 | 1023.9 |
| 20260903012903 | 61 | 26 | 0.0 | 1.0 | 0.00 | 0.00 | 0.00 | 99 | 1023.9 |
| 20260903012803 | 61 | 0 | 0.0 | 0.0 | 0.00 | 0.00 | 0.00 | 99 | 1023.8 |
| 20260903012703 | 61 | 0 | 0.0 | 0.0 | 0.00 | 0.00 | 0.00 | 99 | 1023.8 |
| 20260903012603 | 61 | 0 | 0.0 | 0.0 | 0.00 | 0.00 | 0.00 | 99 | 1024.0 |
| 20260903012503 | 61 | 0 | 0.0 | 0.0 | 0.00 | 0.00 | 0.00 | 99 | 1023.9 |
| 20260903012403 | 61 | 0 | 0.0 | 0.0 | 0.00 | 0.00 | 0.00 | 99 | 1023.9 |
| 20260903012306 | 61 | 0 | 0.0 | 0.0 | 0.00 | 0.00 | 0.00 | 99 | 1024.0 |
| 20260903012203 | 61 | 0 | 0.0 | 0.0 | 0.00 | 0.00 | 0.00 | 99 | 1024.0 |
| 20260903012103 | 61 | 0 | 0.0 | 0.0 | 0.00 | 0.00 | 0.00 | 99 | 1024.0 |
| 20260903012024 | 61 | 0 | 0.0 | 0.0 | 0.00 | 0.00 | 0.00 | 99 | 1024.0 |
| 20260903011903 | 61 | 0 | 0.0 | 0.0 | 0.00 | 0.00 | 0.00 | 99 | 1024.0 |
| 20260903011803 | 61 | 41 | 0.0 | 1.0 | 0.00 | 0.00 | 0.00 | 99 | 1024.0 |
| 20260903011703 | 61 | 41 | 0.0 | 1.0 | 0.00 | 0.00 | 0.00 | 99 | 1023.9 |
| 20260903011603 | 61 | 41 | 0.0 | 1.0 | 0.00 | 0.00 | 0.00 | 99 | 1023.9 |
| 20260903011503 | 61 | 41 | 0.0 | 1.0 | 0.00 | 0.00 | 0.00 | 99 | 1024.0 |
| 20260903011403 | 61 | 41 | 0.0 | 1.0 | 0.00 | 0.00 | 0.00 | 99 | 1024.1 |
| 20260903011303 | 61 | 41 | 0.0 | 1.0 | 0.00 | 0.00 | 0.00 | 99 | 1024.0 |
| 20260903011203 | 61 | 41 | 0.0 | 1.0 | 0.00 | 0.00 | 0.00 | 99 | 1024.0 |
| 20260903011103 | 61 | 41 | 0.0 | 1.0 | 0.00 | 0.00 | 0.00 | 99 | 1023.9 |
| 20260903011003 | 61 | 41 | 0.0 | 1.0 | 0.00 | 0.00 | 0.00 | 99 | 1023.9 |
| 20260903010924 | 61 | 41 | 0.0 | 1.0 | 0.00 | 0.00 | 0.00 | 99 | 1023.9 |
| 20260903010803 | 60 | 0 | 0.0 | 0.0 | 0.00 | 0.00 | 0.00 | 99 | 1023.9 |
| 20260903010703 | 60 | 0 | 0.0 | 0.0 | 0.00 | 0.00 | 0.00 | 99 | 1023.8 |
| 20260903010603 | 60 | 0 | 0.0 | 0.0 | 0.00 | 0.00 | 0.00 | 99 | 1023.8 |
| 20260903010524 | 60 | 0 | 0.0 | 0.0 | 0.00 | 0.00 | 0.00 | 99 | 1023.7 |
| 20260903010403 | 60 | 0 | 0.0 | 0.0 | 0.00 | 0.00 | 0.00 | 99 | 1023.9 |
| 20260903010303 | 60 | 0 | 0.0 | 0.0 | 0.00 | 0.00 | 0.00 | 99 | 1023.8 |
| 20260903010203 | 60 | 0 | 0.0 | 0.0 | 0.00 | 0.00 | 0.00 | 99 | 1023.9 |
| 20260903010124 | 60 | 0 | 0.0 | 0.0 | 0.00 | 0.00 | 0.00 | 99 | 1023.9 |
| 20260903010003 | 60 | 0 | 0.0 | 0.0 | 0.00 | 0.00 | 0.00 | 99 | 1024.0 |
| 20260903005903 | 60 | 0 | 0.0 | 0.0 | 0.00 | 0.00 | 0.00 | 99 | 1023.8 |
| 20260903005803 | 60 | 0 | 0.0 | 0.0 | 0.00 | 0.00 | 0.00 | 99 | 1024.0 |
| 20260903005724 | 60 | 42 | 0.0 | 1.0 | 0.00 | 0.00 | 0.00 | 99 | 1024.0 |
| 20260903005603 | 60 | 42 | 0.0 | 1.0 | 0.00 | 0.00 | 0.00 | 99 | 1023.9 |
| 20260903005503 | 60 | 42 | 0.0 | 1.0 | 0.00 | 0.00 | 0.00 | 99 | 1023.8 |
| 20260903005424 | 60 | 42 | 0.0 | 1.0 | 0.00 | 0.00 | 0.00 | 99 | 1023.8 |
| 20260903005324 | 60 | 42 | 0.0 | 1.0 | 0.00 | 0.00 | 0.00 | 99 | 1024.0 |
| 20260903005203 | 60 | 42 | 0.0 | 1.0 | 0.00 | 0.00 | 0.00 | 99 | 1024.0 |
| 20260903005103 | 60 | 42 | 0.0 | 1.0 | 0.00 | 0.00 | 0.00 | 99 | 1023.8 |
| 20260903005003 | 60 | 42 | 0.0 | 1.0 | 0.00 | 0.00 | 0.00 | 99 | 1023.8 |
| 20260903004924 | 60 | 42 | 1.0 | 1.0 | 0.00 | 0.00 | 0.00 | 99 | 1023.8 |
| 20260903004803 | 60 | 42 | 1.0 | 1.0 | 0.00 | 0.00 | 0.00 | 99 | 1023.8 |
| 20260903004703 | 60 | 42 | 1.0 | 1.0 | 0.00 | 0.00 | 0.00 | 99 | 1024.0 |
| 20260903004603 | 60 | 43 | 1.0 | 1.0 | 0.00 | 0.00 | 0.00 | 99 | 1024.1 |
| 20260903004503 | 60 | 45 | 1.0 | 2.0 | 0.00 | 0.00 | 0.00 | 99 | 1024.1 |
| 20260903004403 | 60 | 45 | 1.0 | 2.0 | 0.00 | 0.00 | 0.00 | 99 | 1024.1 |
| 20260903004303 | 60 | 45 | 1.0 | 2.0 | 0.00 | 0.00 | 0.00 | 99 | 1024.1 |
| 20260903004203 | 60 | 45 | 1.0 | 2.0 | 0.00 | 0.00 | 0.00 | 99 | 1024.0 |
| 20260903004124 | 60 | 46 | 1.0 | 2.0 | 0.00 | 0.00 | 0.00 | 99 | 1024.0 |
| 20260903004003 | 60 | 47 | 1.0 | 2.0 | 0.00 | 0.00 | 0.00 | 99 | 1023.9 |
| 20260903003903 | 60 | 47 | 1.0 | 2.0 | 0.00 | 0.00 | 0.00 | 99 | 1023.8 |
| 20260903003803 | 60 | 47 | 1.0 | 2.0 | 0.00 | 0.00 | 0.00 | 99 | 1024.0 |
| 20260903003703 | 60 | 46 | 1.0 | 2.0 | 0.00 | 0.00 | 0.00 | 99 | 1024.0 |
| 20260903003603 | 60 | 44 | 1.0 | 2.0 | 0.00 | 0.00 | 0.00 | 99 | 1024.1 |
| 20260903003503 | 60 | 42 | 1.0 | 2.0 | 0.00 | 0.00 | 0.00 | 99 | 1024.0 |
| 20260903003403 | 60 | 42 | 1.0 | 2.0 | 0.00 | 0.00 | 0.00 | 99 | 1024.0 |
| 20260903003324 | 60 | 41 | 1.0 | 2.0 | 0.00 | 0.00 | 0.00 | 99 | 1024.0 |
| 20260903003224 | 60 | 41 | 1.0 | 2.0 | 0.00 | 0.00 | 0.00 | 99 | 1024.2 |
| 20260903003124 | 60 | 39 | 1.0 | 2.0 | 0.00 | 0.00 | 0.00 | 99 | 1024.0 |
| 20260903003003 | 60 | 38 | 1.0 | 2.0 | 0.00 | 0.00 | 0.00 | 99 | 1024.0 |
| 20260903002903 | 60 | 35 | 1.0 | 2.0 | 0.00 | 0.00 | 0.00 | 99 | 1023.8 |
| 20260903002803 | 60 | 32 | 0.0 | 1.0 | 0.00 | 0.00 | 0.00 | 99 | 1024.0 |
| 20260903002703 | 60 | 31 | 0.0 | 1.0 | 0.00 | 0.00 | 0.00 | 99 | 1023.9 |
| 20260903002603 | 61 | 31 | 0.0 | 1.0 | 0.00 | 0.00 | 0.00 | 99 | 1024.0 |
| 20260903002503 | 61 | 31 | 0.0 | 1.0 | 0.00 | 0.00 | 0.00 | 99 | 1024.0 |
| 20260903002403 | 61 | 31 | 0.0 | 1.0 | 0.00 | 0.00 | 0.00 | 99 | 1024.0 |
| 20260903002306 | 61 | 30 | 0.0 | 1.0 | 0.00 | 0.00 | 0.00 | 99 | 1024.0 |
| 20260903002203 | 61 | 30 | 0.0 | 1.0 | 0.00 | 0.00 | 0.00 | 99 | 1024.0 |
| 20260903002103 | 61 | 30 | 0.0 | 1.0 | 0.00 | 0.00 | 0.00 | 99 | 1023.9 |
| 20260903002003 | 61 | 0 | 0.0 | 0.0 | 0.00 | 0.00 | 0.00 | 99 | 1023.8 |
| 20260903001903 | 61 | 0 | 0.0 | 0.0 | 0.00 | 0.00 | 0.00 | 99 | 1024.1 |
| 20260903001803 | 61 | 0 | 0.0 | 0.0 | 0.00 | 0.00 | 0.00 | 99 | 1024.1 |
| 20260903001724 | 61 | 0 | 0.0 | 0.0 | 0.00 | 0.00 | 0.00 | 99 | 1023.9 |
| 20260903001624 | 61 | 0 | 0.0 | 0.0 | 0.00 | 0.00 | 0.00 | 99 | 1024.0 |
| 20260903001503 | 61 | 0 | 0.0 | 0.0 | 0.00 | 0.00 | 0.00 | 99 | 1024.0 |
| 20260903001403 | 61 | 0 | 0.0 | 0.0 | 0.00 | 0.00 | 0.00 | 99 | 1024.1 |
| 20260903001303 | 61 | 0 | 0.0 | 0.0 | 0.00 | 0.00 | 0.00 | 99 | 1024.2 |
| 20260903001203 | 61 | 0 | 0.0 | 0.0 | 0.00 | 0.00 | 0.00 | 99 | 1024.2 |
| 20260903001103 | 61 | 31 | 0.0 | 1.0 | 0.00 | 0.00 | 0.00 | 99 | 1023.9 |
| 20260903001003 | 61 | 30 | 0.0 | 1.0 | 0.00 | 0.00 | 0.00 | 99 | 1024.1 |
| 20260903000903 | 61 | 29 | 0.0 | 1.0 | 0.00 | 0.00 | 0.00 | 99 | 1024.2 |
| 20260903000803 | 61 | 29 | 0.0 | 1.0 | 0.00 | 0.00 | 0.00 | 99 | 1024.1 |
| 20260903000703 | 61 | 29 | 0.0 | 1.0 | 0.00 | 0.00 | 0.00 | 99 | 1024.2 |
| 20260903000624 | 61 | 29 | 0.0 | 1.0 | 0.00 | 0.00 | 0.00 | 99 | 1024.2 |
| 20260903000503 | 61 | 29 | 0.0 | 1.0 | 0.00 | 0.00 | 0.00 | 99 | 1024.1 |
| 20260903000403 | 61 | 29 | 0.0 | 1.0 | 0.00 | 0.00 | 0.00 | 99 | 1024.2 |
| 20260903000303 | 61 | 29 | 0.0 | 1.0 | 0.00 | 0.00 | 0.00 | 99 | 1024.0 |
| 20260903000204 | 61 | 29 | 0.0 | 1.0 | 0.00 | 0.00 | 0.00 | 99 | 1024.0 |
| 20260903000003 | 60 | 27 | 0.0 | 1.0 | 0.00 | 0.00 | 0.00 | 99 | 1024.1 |
| 20260902235903 | 60 | 26 | 0.0 | 1.0 | 0.00 | 0.00 | 0.00 | 99 | 1024.2 |
| 20260902235803 | 60 | 0 | 0.0 | 0.0 | 0.00 | 0.00 | 0.00 | 99 | 1024.1 |
| 20260902235703 | 60 | 0 | 0.0 | 0.0 | 0.00 | 0.00 | 0.00 | 99 | 1024.1 |
| 20260902235603 | 61 | 0 | 0.0 | 0.0 | 0.00 | 0.00 | 0.00 | 99 | 1024.3 |
| 20260902235503 | 61 | 0 | 0.0 | 0.0 | 0.00 | 0.00 | 0.00 | 99 | 1024.2 |
| 20260902235403 | 61 | 31 | 0.0 | 1.0 | 0.00 | 0.00 | 0.00 | 99 | 1024.2 |
| 20260902235305 | 61 | 31 | 0.0 | 1.0 | 0.00 | 0.00 | 0.00 | 99 | 1024.3 |
| 20260902235203 | 61 | 31 | 0.0 | 1.0 | 0.00 | 0.00 | 0.00 | 99 | 1024.2 |
| 20260902235124 | 61 | 31 | 0.0 | 1.0 | 0.00 | 0.00 | 0.00 | 99 | 1024.2 |
| 20260902235003 | 61 | 31 | 0.0 | 1.0 | 0.00 | 0.00 | 0.00 | 99 | 1024.2 |
| 20260902234903 | 61 | 31 | 0.0 | 1.0 | 0.00 | 0.00 | 0.00 | 99 | 1024.3 |
| 20260902234824 | 61 | 31 | 0.0 | 1.0 | 0.00 | 0.00 | 0.00 | 99 | 1024.3 |
| 20260902234703 | 61 | 34 | 0.0 | 1.0 | 0.00 | 0.00 | 0.00 | 99 | 1024.4 |
| 20260902234603 | 61 | 34 | 0.0 | 1.0 | 0.00 | 0.00 | 0.00 | 99 | 1024.4 |
| 20260902234503 | 61 | 34 | 1.0 | 1.0 | 0.00 | 0.00 | 0.00 | 99 | 1024.3 |
| 20260902234424 | 61 | 34 | 1.0 | 1.0 | 0.00 | 0.00 | 0.00 | 99 | 1024.4 |
| 20260902234303 | 61 | 34 | 1.0 | 1.0 | 0.00 | 0.00 | 0.00 | 99 | 1024.3 |
| 20260902234224 | 61 | 34 | 1.0 | 1.0 | 0.00 | 0.00 | 0.00 | 99 | 1024.3 |
| 20260902234103 | 61 | 35 | 1.0 | 1.0 | 0.00 | 0.00 | 0.00 | 99 | 1024.4 |
| 20260902234024 | 61 | 36 | 1.0 | 1.0 | 0.00 | 0.00 | 0.00 | 99 | 1024.4 |
| 20260902233906 | 61 | 37 | 1.0 | 1.0 | 0.00 | 0.00 | 0.00 | 99 | 1024.4 |
| 20260902233803 | 61 | 36 | 1.0 | 1.0 | 0.00 | 0.00 | 0.00 | 99 | 1024.4 |
| 20260902233724 | 61 | 36 | 1.0 | 1.0 | 0.00 | 0.00 | 0.00 | 99 | 1024.5 |
| 20260902233603 | 61 | 33 | 1.0 | 1.0 | 0.00 | 0.00 | 0.00 | 99 | 1024.4 |
| 20260902233503 | 60 | 30 | 1.0 | 1.0 | 0.00 | 0.00 | 0.00 | 99 | 1024.4 |
| 20260902233403 | 61 | 30 | 1.0 | 1.0 | 0.00 | 0.00 | 0.00 | 99 | 1024.3 |
| 20260902233303 | 61 | 29 | 1.0 | 1.0 | 0.00 | 0.00 | 0.00 | 99 | 1024.4 |
| 20260902233203 | 61 | 29 | 1.0 | 1.0 | 0.00 | 0.00 | 0.00 | 99 | 1024.3 |
| 20260902233103 | 61 | 28 | 1.0 | 1.0 | 0.00 | 0.00 | 0.00 | 99 | 1024.4 |
| 20260902233003 | 61 | 26 | 0.0 | 1.0 | 0.00 | 0.00 | 0.00 | 99 | 1024.2 |
| 20260902232903 | 61 | 22 | 0.0 | 1.0 | 0.00 | 0.00 | 0.00 | 99 | 1024.3 |
| 20260902232803 | 61 | 18 | 0.0 | 1.0 | 0.00 | 0.00 | 0.00 | 99 | 1024.1 |
| 20260902232724 | 61 | 18 | 0.0 | 1.0 | 0.00 | 0.00 | 0.00 | 99 | 1024.1 |
| 20260902232603 | 61 | 10 | 0.0 | 1.0 | 0.00 | 0.00 | 0.00 | 99 | 1024.2 |
| 20260902232503 | 61 | 10 | 0.0 | 1.0 | 0.00 | 0.00 | 0.00 | 99 | 1024.2 |
| 20260902232403 | 61 | 0 | 0.0 | 0.0 | 0.00 | 0.00 | 0.00 | 99 | 1024.3 |
| 20260902232306 | 61 | 0 | 0.0 | 0.0 | 0.00 | 0.00 | 0.00 | 99 | 1024.1 |
| 20260902232224 | 61 | 0 | 0.0 | 0.0 | 0.00 | 0.00 | 0.00 | 99 | 1024.3 |
| 20260902232103 | 61 | 0 | 0.0 | 0.0 | 0.00 | 0.00 | 0.00 | 99 | 1024.4 |
| 20260902232024 | 61 | 0 | 0.0 | 0.0 | 0.00 | 0.00 | 0.00 | 99 | 1024.2 |
| 20260902231903 | 61 | 0 | 0.0 | 0.0 | 0.00 | 0.00 | 0.00 | 99 | 1024.2 |
| 20260902231803 | 61 | 0 | 0.0 | 0.0 | 0.00 | 0.00 | 0.00 | 99 | 1024.3 |
| 20260902231703 | 61 | 0 | 0.0 | 0.0 | 0.00 | 0.00 | 0.00 | 99 | 1024.3 |
| 20260902231603 | 61 | 0 | 0.0 | 0.0 | 0.00 | 0.00 | 0.00 | 99 | 1024.4 |
| 20260902231503 | 60 | 0 | 0.0 | 0.0 | 0.00 | 0.00 | 0.00 | 99 | 1024.1 |
| 20260902231403 | 60 | 0 | 0.0 | 0.0 | 0.00 | 0.00 | 0.00 | 99 | 1024.4 |
| 20260902231303 | 60 | 0 | 0.0 | 0.0 | 0.00 | 0.00 | 0.00 | 99 | 1024.3 |
| 20260902231203 | 60 | 0 | 0.0 | 0.0 | 0.00 | 0.00 | 0.00 | 99 | 1024.3 |
| 20260902231103 | 60 | 0 | 0.0 | 0.0 | 0.00 | 0.00 | 0.00 | 99 | 1024.2 |
| 20260902231003 | 60 | 0 | 0.0 | 0.0 | 0.00 | 0.00 | 0.00 | 99 | 1024.2 |
| 20260902230903 | 60 | 0 | 0.0 | 0.0 | 0.00 | 0.00 | 0.00 | 99 | 1024.5 |
| 20260902230803 | 60 | 0 | 0.0 | 0.0 | 0.00 | 0.00 | 0.00 | 99 | 1024.3 |
| 20260902230724 | 60 | 0 | 0.0 | 0.0 | 0.00 | 0.00 | 0.00 | 99 | 1024.5 |
| 20260902230603 | 60 | 0 | 0.0 | 0.0 | 0.00 | 0.00 | 0.00 | 99 | 1024.3 |
| 20260902230524 | 60 | 0 | 0.0 | 0.0 | 0.00 | 0.00 | 0.00 | 99 | 1024.3 |
| 20260902230403 | 60 | 0 | 0.0 | 0.0 | 0.00 | 0.00 | 0.00 | 99 | 1024.3 |
| 20260902230303 | 61 | 0 | 0.0 | 0.0 | 0.00 | 0.00 | 0.00 | 99 | 1024.5 |
| 20260902230224 | 61 | 0 | 0.0 | 0.0 | 0.00 | 0.00 | 0.00 | 99 | 1024.4 |
| 20260902230003 | 61 | 0 | 0.0 | 0.0 | 0.00 | 0.00 | 0.00 | 99 | 1024.4 |
| 20260902225924 | 61 | 0 | 0.0 | 0.0 | 0.00 | 0.00 | 0.00 | 99 | 1024.4 |
| 20260902225803 | 61 | 0 | 0.0 | 0.0 | 0.00 | 0.00 | 0.00 | 99 | 1024.2 |
| 20260902225724 | 61 | 0 | 0.0 | 0.0 | 0.00 | 0.00 | 0.00 | 99 | 1024.2 |
| 20260902225603 | 61 | 0 | 0.0 | 0.0 | 0.00 | 0.00 | 0.00 | 99 | 1024.5 |
| 20260902225524 | 61 | 0 | 0.0 | 0.0 | 0.00 | 0.00 | 0.00 | 99 | 1024.5 |
| 20260902225403 | 61 | 0 | 0.0 | 0.0 | 0.00 | 0.00 | 0.00 | 99 | 1024.4 |
| 20260902225306 | 61 | 0 | 0.0 | 0.0 | 0.00 | 0.00 | 0.00 | 99 | 1024.5 |
| 20260902225203 | 61 | 0 | 0.0 | 0.0 | 0.00 | 0.00 | 0.00 | 99 | 1024.5 |
| 20260902225103 | 61 | 0 | 0.0 | 0.0 | 0.00 | 0.00 | 0.00 | 99 | 1024.6 |
| 20260902225003 | 61 | 0 | 0.0 | 0.0 | 0.00 | 0.00 | 0.00 | 99 | 1024.5 |
| 20260902224903 | 61 | 0 | 0.0 | 0.0 | 0.00 | 0.00 | 0.00 | 99 | 1024.4 |
| 20260902224803 | 61 | 0 | 0.0 | 0.0 | 0.00 | 0.00 | 0.00 | 99 | 1024.6 |
| 20260902224724 | 61 | 0 | 0.0 | 0.0 | 0.00 | 0.00 | 0.00 | 99 | 1024.5 |
| 20260902224603 | 61 | 0 | 0.0 | 0.0 | 0.00 | 0.00 | 0.00 | 99 | 1024.3 |
| 20260902224524 | 61 | 0 | 0.0 | 0.0 | 0.00 | 0.00 | 0.00 | 99 | 1024.4 |
| 20260902224424 | 61 | 0 | 0.0 | 0.0 | 0.00 | 0.00 | 0.00 | 99 | 1024.7 |
| 20260902224303 | 61 | 0 | 0.0 | 0.0 | 0.00 | 0.00 | 0.00 | 99 | 1024.5 |
| 20260902224203 | 61 | 0 | 0.0 | 0.0 | 0.00 | 0.00 | 0.00 | 99 | 1024.4 |
| 20260902224103 | 61 | 0 | 0.0 | 0.0 | 0.00 | 0.00 | 0.00 | 99 | 1024.4 |
| 20260902224024 | 61 | 0 | 0.0 | 0.0 | 0.00 | 0.00 | 0.00 | 99 | 1024.4 |
| 20260902223903 | 62 | 9 | 0.0 | 1.0 | 0.00 | 0.00 | 0.00 | 99 | 1024.4 |
| 20260902223803 | 62 | 9 | 0.0 | 1.0 | 0.00 | 0.00 | 0.00 | 99 | 1024.4 |
| 20260902223703 | 62 | 9 | 0.0 | 1.0 | 0.00 | 0.00 | 0.00 | 99 | 1024.6 |
| 20260902223603 | 62 | 9 | 0.0 | 1.0 | 0.00 | 0.00 | 0.00 | 99 | 1024.5 |
| 20260902223503 | 62 | 9 | 0.0 | 1.0 | 0.00 | 0.00 | 0.00 | 99 | 1024.6 |
| 20260902223403 | 62 | 9 | 0.0 | 1.0 | 0.00 | 0.00 | 0.00 | 99 | 1024.4 |
| 20260902223303 | 62 | 9 | 0.0 | 1.0 | 0.00 | 0.00 | 0.00 | 99 | 1024.3 |
| 20260902223203 | 62 | 9 | 0.0 | 1.0 | 0.00 | 0.00 | 0.00 | 99 | 1024.7 |
| 20260902223103 | 62 | 9 | 0.0 | 1.0 | 0.00 | 0.00 | 0.00 | 99 | 1024.5 |
| 20260902223003 | 62 | 9 | 0.0 | 1.0 | 0.00 | 0.00 | 0.00 | 99 | 1024.5 |
| 20260902222924 | 62 | 9 | 0.0 | 1.0 | 0.00 | 0.00 | 0.00 | 99 | 1024.5 |
| 20260902222803 | 62 | 9 | 0.0 | 1.0 | 0.00 | 0.00 | 0.00 | 99 | 1024.5 |
| 20260902222703 | 62 | 9 | 0.0 | 1.0 | 0.00 | 0.00 | 0.00 | 99 | 1024.6 |
| 20260902222603 | 62 | 0 | 0.0 | 0.0 | 0.00 | 0.00 | 0.00 | 99 | 1024.6 |
| 20260902222503 | 62 | 0 | 0.0 | 0.0 | 0.00 | 0.00 | 0.00 | 99 | 1024.6 |
| 20260902222403 | 62 | 0 | 0.0 | 0.0 | 0.00 | 0.00 | 0.00 | 99 | 1024.5 |
| 20260902222305 | 62 | 0 | 0.0 | 0.0 | 0.00 | 0.00 | 0.00 | 99 | 1024.5 |
| 20260902222203 | 62 | 0 | 0.0 | 0.0 | 0.00 | 0.00 | 0.00 | 99 | 1024.5 |
| 20260902222103 | 62 | 0 | 0.0 | 0.0 | 0.00 | 0.00 | 0.00 | 99 | 1024.5 |
| 20260902222003 | 62 | 0 | 0.0 | 0.0 | 0.00 | 0.00 | 0.00 | 99 | 1024.5 |
| 20260902221903 | 62 | 9 | 0.0 | 1.0 | 0.00 | 0.00 | 0.00 | 99 | 1024.5 |
| 20260902221803 | 62 | 9 | 0.0 | 1.0 | 0.00 | 0.00 | 0.00 | 99 | 1024.7 |
| 20260902221703 | 62 | 9 | 0.0 | 1.0 | 0.00 | 0.00 | 0.00 | 99 | 1024.6 |
| 20260902221603 | 62 | 9 | 0.0 | 1.0 | 0.00 | 0.00 | 0.00 | 99 | 1024.6 |
| 20260902221503 | 62 | 9 | 0.0 | 1.0 | 0.00 | 0.00 | 0.00 | 99 | 1024.5 |
| 20260902221403 | 62 | 9 | 0.0 | 1.0 | 0.00 | 0.00 | 0.00 | 99 | 1024.6 |
| 20260902221303 | 62 | 9 | 0.0 | 1.0 | 0.00 | 0.00 | 0.00 | 99 | 1024.6 |
| 20260902221203 | 62 | 9 | 0.0 | 1.0 | 0.00 | 0.00 | 0.00 | 99 | 1024.5 |
| 20260902221103 | 62 | 9 | 0.0 | 1.0 | 0.00 | 0.00 | 0.00 | 99 | 1024.6 |
| 20260902221003 | 62 | 9 | 0.0 | 1.0 | 0.00 | 0.00 | 0.00 | 99 | 1024.5 |
| 20260902220924 | 62 | 9 | 0.0 | 1.0 | 0.00 | 0.00 | 0.00 | 99 | 1024.5 |
| 20260902220803 | 62 | 9 | 0.0 | 1.0 | 0.00 | 0.00 | 0.00 | 99 | 1024.6 |
| 20260902220703 | 62 | 9 | 0.0 | 1.0 | 0.00 | 0.00 | 0.00 | 99 | 1024.6 |
| 20260902220624 | 62 | 9 | 0.0 | 1.0 | 0.00 | 0.00 | 0.00 | 99 | 1024.6 |
| 20260902220503 | 62 | 9 | 0.0 | 1.0 | 0.00 | 0.00 | 0.00 | 99 | 1024.4 |
| 20260902220403 | 62 | 9 | 0.0 | 1.0 | 0.00 | 0.00 | 0.00 | 99 | 1024.7 |
| 20260902220303 | 62 | 9 | 0.0 | 1.0 | 0.00 | 0.00 | 0.00 | 99 | 1024.5 |
| 20260902220203 | 62 | 9 | 0.0 | 1.0 | 0.00 | 0.00 | 0.00 | 99 | 1024.5 |
| 20260902220003 | 62 | 9 | 0.0 | 1.0 | 0.00 | 0.00 | 0.00 | 99 | 1024.6 |
| 20260902215903 | 62 | 9 | 0.0 | 1.0 | 0.00 | 0.00 | 0.00 | 99 | 1024.5 |
| 20260902215803 | 62 | 0 | 0.0 | 0.0 | 0.00 | 0.00 | 0.00 | 99 | 1024.6 |
| 20260902215703 | 62 | 0 | 0.0 | 0.0 | 0.00 | 0.00 | 0.00 | 99 | 1024.7 |
| 20260902215624 | 62 | 0 | 0.0 | 0.0 | 0.00 | 0.00 | 0.00 | 99 | 1024.7 |
| 20260902215503 | 62 | 0 | 0.0 | 0.0 | 0.00 | 0.00 | 0.00 | 99 | 1024.5 |
| 20260902215403 | 62 | 0 | 0.0 | 0.0 | 0.00 | 0.00 | 0.00 | 99 | 1024.3 |
| 20260902215306 | 62 | 0 | 0.0 | 0.0 | 0.00 | 0.00 | 0.00 | 99 | 1024.4 |
| 20260902215203 | 62 | 0 | 0.0 | 0.0 | 0.00 | 0.00 | 0.00 | 99 | 1024.4 |
| 20260902215103 | 62 | 0 | 0.0 | 0.0 | 0.00 | 0.00 | 0.00 | 99 | 1024.5 |
| 20260902215024 | 62 | 0 | 0.0 | 0.0 | 0.00 | 0.00 | 0.00 | 99 | 1024.5 |
| 20260902214924 | 62 | 0 | 0.0 | 0.0 | 0.00 | 0.00 | 0.00 | 99 | 1024.6 |
| 20260902214803 | 62 | 0 | 0.0 | 0.0 | 0.00 | 0.00 | 0.00 | 99 | 1024.7 |
| 20260902214703 | 62 | 0 | 0.0 | 0.0 | 0.00 | 0.00 | 0.00 | 99 | 1024.5 |
| 20260902214603 | 62 | 0 | 0.0 | 0.0 | 0.00 | 0.00 | 0.00 | 99 | 1024.5 |
| 20260902214503 | 62 | 0 | 0.0 | 0.0 | 0.00 | 0.00 | 0.00 | 99 | 1024.5 |
| 20260902214403 | 62 | 0 | 0.0 | 0.0 | 0.00 | 0.00 | 0.00 | 99 | 1024.4 |
| 20260902214303 | 62 | 0 | 0.0 | 0.0 | 0.00 | 0.00 | 0.00 | 99 | 1024.5 |
| 20260902214203 | 62 | 0 | 0.0 | 0.0 | 0.00 | 0.00 | 0.00 | 99 | 1024.5 |
| 20260902214103 | 62 | 0 | 0.0 | 0.0 | 0.00 | 0.00 | 0.00 | 99 | 1024.5 |
| 20260902214003 | 62 | 0 | 0.0 | 0.0 | 0.00 | 0.00 | 0.00 | 99 | 1024.5 |
| 20260902213924 | 62 | 0 | 0.0 | 0.0 | 0.00 | 0.00 | 0.00 | 99 | 1024.5 |
| 20260902213824 | 62 | 0 | 0.0 | 0.0 | 0.00 | 0.00 | 0.00 | 98 | 1024.4 |
| 20260902213703 | 62 | 9 | 0.0 | 1.0 | 0.00 | 0.00 | 0.00 | 98 | 1024.4 |
| 20260902213624 | 62 | 9 | 0.0 | 1.0 | 0.00 | 0.00 | 0.00 | 98 | 1024.4 |
| 20260902213524 | 62 | 9 | 0.0 | 1.0 | 0.00 | 0.00 | 0.00 | 98 | 1024.5 |
| 20260902213403 | 63 | 9 | 0.0 | 1.0 | 0.00 | 0.00 | 0.00 | 98 | 1024.4 |
| 20260902213324 | 63 | 9 | 0.0 | 1.0 | 0.00 | 0.00 | 0.00 | 98 | 1024.5 |
| 20260902213203 | 63 | 9 | 0.0 | 1.0 | 0.00 | 0.00 | 0.00 | 98 | 1024.4 |
| 20260902213103 | 63 | 9 | 0.0 | 1.0 | 0.00 | 0.00 | 0.00 | 98 | 1024.4 |
| 20260902213003 | 63 | 9 | 0.0 | 1.0 | 0.00 | 0.00 | 0.00 | 98 | 1024.3 |
| 20260902212903 | 63 | 9 | 0.0 | 1.0 | 0.00 | 0.00 | 0.00 | 98 | 1024.4 |
| 20260902212803 | 63 | 9 | 0.0 | 1.0 | 0.00 | 0.00 | 0.00 | 98 | 1024.3 |
| 20260902212703 | 63 | 9 | 0.0 | 1.0 | 0.00 | 0.00 | 0.00 | 98 | 1024.4 |
| 20260902212603 | 63 | 0 | 0.0 | 0.0 | 0.00 | 0.00 | 0.00 | 98 | 1024.4 |
| 20260902212503 | 63 | 0 | 0.0 | 0.0 | 0.00 | 0.00 | 0.00 | 98 | 1024.4 |
| 20260902212403 | 63 | 0 | 0.0 | 0.0 | 0.00 | 0.00 | 0.00 | 98 | 1024.4 |
| 20260902212305 | 63 | 0 | 0.0 | 0.0 | 0.00 | 0.00 | 0.00 | 98 | 1024.3 |
| 20260902212203 | 63 | 0 | 0.0 | 0.0 | 0.00 | 0.00 | 0.00 | 98 | 1024.4 |
| 20260902212103 | 63 | 0 | 0.0 | 0.0 | 0.00 | 0.00 | 0.00 | 98 | 1024.4 |
| 20260902212003 | 63 | 9 | 0.0 | 1.0 | 0.00 | 0.00 | 0.00 | 98 | 1024.4 |
| 20260902211903 | 63 | 9 | 0.0 | 1.0 | 0.00 | 0.00 | 0.00 | 98 | 1024.5 |
| 20260902211803 | 63 | 9 | 0.0 | 1.0 | 0.00 | 0.00 | 0.00 | 98 | 1024.5 |
| 20260902211703 | 63 | 9 | 0.0 | 1.0 | 0.00 | 0.00 | 0.00 | 98 | 1024.3 |
| 20260902211603 | 63 | 9 | 0.0 | 1.0 | 0.00 | 0.00 | 0.00 | 98 | 1024.4 |
| 20260902211524 | 63 | 9 | 0.0 | 1.0 | 0.00 | 0.00 | 0.00 | 98 | 1024.4 |
| 20260902211403 | 63 | 9 | 0.0 | 1.0 | 0.00 | 0.00 | 0.00 | 98 | 1024.4 |
| 20260902211324 | 63 | 9 | 0.0 | 1.0 | 0.00 | 0.00 | 0.00 | 98 | 1024.2 |
| 20260902211203 | 63 | 9 | 0.0 | 1.0 | 0.00 | 0.00 | 0.00 | 98 | 1024.3 |
| 20260902211103 | 63 | 9 | 0.0 | 1.0 | 0.00 | 0.00 | 0.00 | 98 | 1024.2 |
| 20260902211003 | 63 | 9 | 0.0 | 1.0 | 0.00 | 0.00 | 0.00 | 98 | 1024.3 |
| 20260902210903 | 63 | 9 | 0.0 | 1.0 | 0.00 | 0.00 | 0.00 | 98 | 1024.3 |
| 20260902210803 | 63 | 9 | 0.0 | 1.0 | 0.00 | 0.00 | 0.00 | 98 | 1024.3 |
| 20260902210703 | 63 | 9 | 0.0 | 1.0 | 0.00 | 0.00 | 0.00 | 98 | 1024.2 |
| 20260902210603 | 63 | 9 | 0.0 | 1.0 | 0.00 | 0.00 | 0.00 | 98 | 1024.4 |
| 20260902210524 | 63 | 9 | 0.0 | 1.0 | 0.00 | 0.00 | 0.00 | 98 | 1024.4 |
| 20260902210403 | 63 | 0 | 0.0 | 0.0 | 0.00 | 0.00 | 0.00 | 98 | 1024.1 |
| 20260902210324 | 63 | 0 | 0.0 | 0.0 | 0.00 | 0.00 | 0.00 | 98 | 1024.1 |
| 20260902210203 | 63 | 0 | 0.0 | 0.0 | 0.00 | 0.00 | 0.00 | 98 | 1024.2 |
| 20260902210103 | 63 | 0 | 0.0 | 0.0 | 0.00 | 0.00 | 0.00 | 98 | 1024.2 |
| 20260902210024 | 63 | 0 | 0.0 | 0.0 | 0.00 | 0.00 | 0.00 | 98 | 1024.2 |
| 20260902205903 | 63 | 0 | 0.0 | 0.0 | 0.00 | 0.00 | 0.00 | 98 | 1024.2 |
| 20260902205824 | 63 | 0 | 0.0 | 0.0 | 0.00 | 0.00 | 0.00 | 98 | 1024.2 |
| 20260902205703 | 63 | 0 | 0.0 | 0.0 | 0.00 | 0.00 | 0.00 | 98 | 1024.2 |
| 20260902205603 | 64 | 0 | 0.0 | 0.0 | 0.00 | 0.00 | 0.00 | 98 | 1024.3 |
| 20260902205503 | 64 | 0 | 0.0 | 0.0 | 0.00 | 0.00 | 0.00 | 98 | 1024.2 |
| 20260902205403 | 64 | 0 | 0.0 | 0.0 | 0.00 | 0.00 | 0.00 | 98 | 1024.3 |
| 20260902205324 | 64 | 0 | 0.0 | 0.0 | 0.00 | 0.00 | 0.00 | 98 | 1024.2 |
| 20260902205203 | 64 | 0 | 0.0 | 0.0 | 0.00 | 0.00 | 0.00 | 98 | 1024.2 |
| 20260902205103 | 64 | 0 | 0.0 | 0.0 | 0.00 | 0.00 | 0.00 | 98 | 1024.2 |
| 20260902205024 | 64 | 0 | 0.0 | 0.0 | 0.00 | 0.00 | 0.00 | 98 | 1024.2 |
| 20260902204924 | 64 | 0 | 0.0 | 0.0 | 0.00 | 0.00 | 0.00 | 98 | 1024.3 |
| 20260902204803 | 63 | 9 | 0.0 | 1.0 | 0.00 | 0.00 | 0.00 | 98 | 1024.2 |
| 20260902204703 | 63 | 9 | 0.0 | 1.0 | 0.00 | 0.00 | 0.00 | 98 | 1024.1 |
| 20260902204603 | 63 | 9 | 0.0 | 1.0 | 0.00 | 0.00 | 0.00 | 98 | 1024.1 |
| 20260902204503 | 64 | 9 | 0.0 | 1.0 | 0.00 | 0.00 | 0.00 | 98 | 1024.0 |
| 20260902204403 | 64 | 9 | 0.0 | 1.0 | 0.00 | 0.00 | 0.00 | 98 | 1023.9 |
| 20260902204303 | 64 | 9 | 0.0 | 1.0 | 0.00 | 0.00 | 0.00 | 97 | 1024.0 |
| 20260902204203 | 64 | 9 | 0.0 | 1.0 | 0.00 | 0.00 | 0.00 | 97 | 1024.0 |
| 20260902204103 | 64 | 9 | 0.0 | 1.0 | 0.00 | 0.00 | 0.00 | 97 | 1024.0 |
| 20260902204003 | 64 | 9 | 0.0 | 1.0 | 0.00 | 0.00 | 0.00 | 98 | 1024.1 |
| 20260902203903 | 64 | 9 | 0.0 | 1.0 | 0.00 | 0.00 | 0.00 | 97 | 1024.1 |
| 20260902203803 | 64 | 9 | 0.0 | 1.0 | 0.00 | 0.00 | 0.00 | 97 | 1024.1 |
| 20260902203724 | 64 | 0 | 0.0 | 0.0 | 0.00 | 0.00 | 0.00 | 97 | 1024.0 |
| 20260902203624 | 64 | 0 | 0.0 | 0.0 | 0.00 | 0.00 | 0.00 | 97 | 1023.9 |
| 20260902203503 | 64 | 0 | 0.0 | 0.0 | 0.00 | 0.00 | 0.00 | 97 | 1024.0 |
| 20260902203424 | 64 | 0 | 0.0 | 0.0 | 0.00 | 0.00 | 0.00 | 97 | 1024.0 |
| 20260902203303 | 64 | 0 | 0.0 | 0.0 | 0.00 | 0.00 | 0.00 | 97 | 1024.1 |
| 20260902203203 | 63 | 0 | 0.0 | 0.0 | 0.00 | 0.00 | 0.00 | 97 | 1024.0 |
| 20260902203103 | 63 | 0 | 0.0 | 0.0 | 0.00 | 0.00 | 0.00 | 97 | 1024.1 |
| 20260902203003 | 63 | 0 | 0.0 | 0.0 | 0.00 | 0.00 | 0.00 | 97 | 1024.1 |
| 20260902202924 | 63 | 0 | 0.0 | 0.0 | 0.00 | 0.00 | 0.00 | 97 | 1024.1 |
| 20260902202803 | 64 | 0 | 0.0 | 0.0 | 0.00 | 0.00 | 0.00 | 97 | 1023.9 |
| 20260902202703 | 64 | 0 | 0.0 | 0.0 | 0.00 | 0.00 | 0.00 | 97 | 1024.1 |
| 20260902202603 | 64 | 0 | 0.0 | 0.0 | 0.00 | 0.00 | 0.00 | 97 | 1024.0 |
| 20260902202503 | 64 | 0 | 0.0 | 0.0 | 0.00 | 0.00 | 0.00 | 97 | 1024.1 |
| 20260902202403 | 64 | 0 | 0.0 | 0.0 | 0.00 | 0.00 | 0.00 | 97 | 1023.8 |
| 20260902202324 | 64 | 0 | 0.0 | 0.0 | 0.00 | 0.00 | 0.00 | 97 | 1023.9 |
| 20260902202224 | 64 | 0 | 0.0 | 0.0 | 0.00 | 0.00 | 0.00 | 97 | 1024.0 |
| 20260902202103 | 64 | 0 | 0.0 | 0.0 | 0.00 | 0.00 | 0.00 | 97 | 1023.9 |
| 20260902202003 | 64 | 0 | 0.0 | 0.0 | 0.00 | 0.00 | 0.00 | 97 | 1023.7 |
| 20260902201903 | 64 | 0 | 0.0 | 0.0 | 0.00 | 0.00 | 0.00 | 97 | 1024.1 |
| 20260902201803 | 64 | 0 | 0.0 | 0.0 | 0.00 | 0.00 | 0.00 | 97 | 1024.0 |
| 20260902201703 | 64 | 0 | 0.0 | 0.0 | 0.00 | 0.00 | 0.00 | 97 | 1024.1 |
| 20260902201603 | 64 | 0 | 0.0 | 0.0 | 0.00 | 0.00 | 0.00 | 97 | 1023.8 |
| 20260902201524 | 64 | 0 | 0.0 | 0.0 | 0.00 | 0.00 | 0.00 | 97 | 1023.8 |
| 20260902201403 | 65 | 0 | 0.0 | 0.0 | 0.00 | 0.00 | 0.00 | 97 | 1023.9 |
| 20260902201324 | 65 | 0 | 0.0 | 0.0 | 0.00 | 0.00 | 0.00 | 96 | 1023.9 |
| 20260902201203 | 65 | 0 | 0.0 | 0.0 | 0.00 | 0.00 | 0.00 | 96 | 1023.9 |
| 20260902201124 | 65 | 0 | 0.0 | 0.0 | 0.00 | 0.00 | 0.00 | 96 | 1023.8 |
| 20260902201003 | 65 | 0 | 0.0 | 0.0 | 0.00 | 0.00 | 0.00 | 96 | 1023.8 |
| 20260902200903 | 65 | 0 | 0.0 | 0.0 | 0.00 | 0.00 | 0.00 | 96 | 1023.8 |
| 20260902200803 | 65 | 0 | 0.0 | 0.0 | 0.00 | 0.00 | 0.00 | 96 | 1023.9 |
| 20260902200703 | 65 | 0 | 0.0 | 0.0 | 0.00 | 0.00 | 0.00 | 96 | 1023.7 |
| 20260902200624 | 65 | 0 | 0.0 | 0.0 | 0.00 | 0.00 | 0.00 | 96 | 1023.8 |
| 20260902200503 | 65 | 0 | 0.0 | 0.0 | 0.00 | 0.00 | 0.00 | 96 | 1023.9 |
| 20260902200404 | 65 | 0 | 0.0 | 0.0 | 0.00 | 0.00 | 0.00 | 96 | 1023.9 |
| 20260902200303 | 65 | 7 | 0.0 | 1.0 | 0.00 | 0.00 | 0.00 | 96 | 1023.9 |
| 20260902200224 | 65 | 7 | 0.0 | 1.0 | 0.00 | 0.00 | 0.00 | 96 | 1023.9 |
| 20260902200024 | 65 | 7 | 0.0 | 1.0 | 0.00 | 0.00 | 0.00 | 96 | 1023.9 |
| 20260902195903 | 65 | 7 | 0.0 | 1.0 | 0.00 | 0.00 | 0.00 | 96 | 1023.9 |
| 20260902195803 | 65 | 7 | 0.0 | 1.0 | 0.00 | 0.00 | 0.00 | 96 | 1023.9 |
| 20260902195724 | 65 | 7 | 0.0 | 1.0 | 0.00 | 0.00 | 0.00 | 96 | 1023.9 |
| 20260902195603 | 65 | 10 | 0.0 | 1.0 | 0.00 | 0.00 | 0.00 | 96 | 1023.8 |
| 20260902195503 | 65 | 10 | 0.0 | 1.0 | 0.00 | 0.00 | 0.00 | 96 | 1023.9 |
| 20260902195403 | 65 | 10 | 0.0 | 1.0 | 0.00 | 0.00 | 0.00 | 96 | 1023.8 |
| 20260902195306 | 65 | 10 | 0.0 | 1.0 | 0.00 | 0.00 | 0.00 | 96 | 1023.7 |
| 20260902195203 | 65 | 12 | 0.0 | 1.0 | 0.00 | 0.00 | 0.00 | 95 | 1023.7 |
| 20260902195103 | 65 | 12 | 0.0 | 1.0 | 0.00 | 0.00 | 0.00 | 95 | 1023.8 |
| 20260902195003 | 65 | 6 | 0.0 | 1.0 | 0.00 | 0.00 | 0.00 | 95 | 1023.7 |
| 20260902194903 | 65 | 6 | 0.0 | 1.0 | 0.00 | 0.00 | 0.00 | 95 | 1023.6 |
| 20260902194803 | 65 | 6 | 0.0 | 1.0 | 0.00 | 0.00 | 0.00 | 95 | 1023.7 |
| 20260902194703 | 65 | 2 | 0.0 | 1.0 | 0.00 | 0.00 | 0.00 | 95 | 1023.7 |
| 20260902194624 | 65 | 2 | 0.0 | 1.0 | 0.00 | 0.00 | 0.00 | 95 | 1023.7 |
| 20260902194503 | 65 | 355 | 0.0 | 1.0 | 0.00 | 0.00 | 0.00 | 95 | 1023.8 |
| 20260902194403 | 65 | 355 | 0.0 | 1.0 | 0.00 | 0.00 | 0.00 | 95 | 1023.7 |
| 20260902194303 | 65 | 355 | 0.0 | 1.0 | 0.00 | 0.00 | 0.00 | 95 | 1023.6 |
| 20260902194203 | 65 | 355 | 0.0 | 1.0 | 0.00 | 0.00 | 0.00 | 95 | 1023.6 |
| 20260902194103 | 65 | 355 | 0.0 | 1.0 | 0.00 | 0.00 | 0.00 | 95 | 1023.6 |
| 20260902194003 | 65 | 355 | 0.0 | 1.0 | 0.00 | 0.00 | 0.00 | 95 | 1023.6 |
| 20260902193903 | 66 | 355 | 0.0 | 1.0 | 0.00 | 0.00 | 0.00 | 94 | 1023.8 |
| 20260902193803 | 66 | 2 | 0.0 | 1.0 | 0.00 | 0.00 | 0.00 | 94 | 1023.6 |
| 20260902193703 | 66 | 6 | 0.0 | 1.0 | 0.00 | 0.00 | 0.00 | 94 | 1023.8 |
| 20260902193603 | 66 | 9 | 0.0 | 1.0 | 0.00 | 0.00 | 0.00 | 94 | 1023.7 |
| 20260902193503 | 66 | 14 | 0.0 | 1.0 | 0.00 | 0.00 | 0.00 | 94 | 1023.5 |
| 20260902193403 | 66 | 24 | 0.0 | 1.0 | 0.00 | 0.00 | 0.00 | 94 | 1023.6 |
| 20260902193303 | 66 | 24 | 0.0 | 1.0 | 0.00 | 0.00 | 0.00 | 94 | 1023.6 |
| 20260902193224 | 66 | 24 | 0.0 | 1.0 | 0.00 | 0.00 | 0.00 | 94 | 1023.5 |
| 20260902193103 | 66 | 24 | 0.0 | 1.0 | 0.00 | 0.00 | 0.00 | 94 | 1023.5 |
| 20260902193024 | 66 | 24 | 0.0 | 1.0 | 0.00 | 0.00 | 0.00 | 94 | 1023.5 |
| 20260902192903 | 66 | 24 | 0.0 | 1.0 | 0.00 | 0.00 | 0.00 | 94 | 1023.5 |
| 20260902192824 | 66 | 24 | 0.0 | 1.0 | 0.00 | 0.00 | 0.00 | 94 | 1023.5 |
| 20260902192724 | 66 | 24 | 0.0 | 1.0 | 0.00 | 0.00 | 0.00 | 93 | 1023.6 |
| 20260902192603 | 66 | 24 | 0.0 | 1.0 | 0.00 | 0.00 | 0.00 | 93 | 1023.3 |
| 20260902192503 | 66 | 17 | 0.0 | 1.0 | 0.00 | 0.00 | 0.00 | 93 | 1023.5 |
| 20260902192403 | 66 | 15 | 0.0 | 1.0 | 0.00 | 0.00 | 0.00 | 93 | 1023.2 |
| 20260902192306 | 66 | 14 | 0.0 | 1.0 | 0.00 | 0.00 | 0.00 | 93 | 1023.3 |
| 20260902192224 | 67 | 14 | 0.0 | 1.0 | 0.00 | 0.00 | 0.00 | 93 | 1023.3 |
| 20260902192124 | 67 | 14 | 0.0 | 1.0 | 0.00 | 0.00 | 0.00 | 93 | 1023.5 |
| 20260902192003 | 67 | 13 | 0.0 | 1.0 | 0.00 | 0.00 | 0.00 | 93 | 1023.5 |
| 20260902191903 | 67 | 13 | 0.0 | 1.0 | 0.00 | 0.00 | 0.00 | 92 | 1023.3 |
| 20260902191803 | 67 | 13 | 0.0 | 1.0 | 0.00 | 0.00 | 0.00 | 92 | 1023.6 |
| 20260902191703 | 67 | 9 | 0.0 | 1.0 | 0.00 | 0.00 | 0.00 | 92 | 1023.3 |
| 20260902191603 | 67 | 360 | 0.0 | 2.0 | 0.00 | 0.00 | 0.00 | 92 | 1023.2 |
| 20260902191503 | 67 | 357 | 0.0 | 2.0 | 0.00 | 0.00 | 0.00 | 92 | 1023.3 |
| 20260902191403 | 67 | 353 | 1.0 | 2.0 | 0.00 | 0.00 | 0.00 | 92 | 1023.1 |
| 20260902191324 | 67 | 353 | 1.0 | 2.0 | 0.00 | 0.00 | 0.00 | 92 | 1023.1 |
| 20260902191224 | 67 | 342 | 1.0 | 2.0 | 0.00 | 0.00 | 0.00 | 91 | 1023.2 |
| 20260902191124 | 67 | 341 | 1.0 | 2.0 | 0.00 | 0.00 | 0.00 | 91 | 1023.3 |
| 20260902191003 | 67 | 341 | 1.0 | 2.0 | 0.00 | 0.00 | 0.00 | 91 | 1023.3 |
| 20260902190924 | 67 | 338 | 1.0 | 2.0 | 0.00 | 0.00 | 0.00 | 91 | 1023.2 |
| 20260902190803 | 67 | 339 | 1.0 | 2.0 | 0.00 | 0.00 | 0.00 | 91 | 1023.3 |
| 20260902190703 | 67 | 343 | 1.0 | 2.0 | 0.00 | 0.00 | 0.00 | 91 | 1023.2 |
| 20260902190603 | 68 | 341 | 1.0 | 2.0 | 0.00 | 0.00 | 0.00 | 91 | 1023.2 |
| 20260902190503 | 68 | 342 | 1.0 | 2.0 | 0.00 | 0.00 | 0.00 | 91 | 1023.3 |
| 20260902190403 | 68 | 342 | 1.0 | 2.0 | 0.00 | 0.00 | 0.00 | 91 | 1023.5 |
| 20260902190303 | 68 | 343 | 1.0 | 2.0 | 0.00 | 0.00 | 0.00 | 90 | 1023.5 |
| 20260902190203 | 68 | 349 | 1.0 | 2.0 | 0.00 | 0.00 | 0.00 | 90 | 1023.3 |
| 20260902190003 | 68 | 350 | 1.0 | 2.0 | 0.00 | 0.00 | 0.00 | 90 | 1023.3 |
| 20260902185903 | 68 | 349 | 1.0 | 2.0 | 0.00 | 0.00 | 0.00 | 90 | 1023.3 |
| 20260902185824 | 68 | 349 | 1.0 | 2.0 | 0.00 | 0.00 | 0.00 | 90 | 1023.3 |
| 20260902185703 | 68 | 347 | 1.0 | 2.0 | 0.00 | 0.00 | 0.00 | 90 | 1023.6 |
| 20260902185603 | 68 | 347 | 1.0 | 2.0 | 0.00 | 0.00 | 0.00 | 89 | 1023.2 |
| 20260902185503 | 69 | 348 | 1.0 | 2.0 | 0.00 | 0.00 | 0.00 | 89 | 1023.3 |
| 20260902185403 | 69 | 348 | 1.0 | 2.0 | 0.00 | 0.00 | 0.00 | 89 | 1023.3 |
| 20260902185306 | 69 | 348 | 1.0 | 2.0 | 0.00 | 0.00 | 0.00 | 89 | 1023.2 |
| 20260902185204 | 69 | 347 | 1.0 | 2.0 | 0.00 | 0.00 | 0.00 | 89 | 1023.5 |
| 20260902185103 | 69 | 345 | 1.0 | 2.0 | 0.00 | 0.00 | 0.00 | 88 | 1023.3 |
| 20260902185025 | 69 | 343 | 1.0 | 2.0 | 0.00 | 0.00 | 0.00 | 88 | 1023.5 |
| 20260902184903 | 69 | 343 | 1.0 | 2.0 | 0.00 | 0.00 | 0.00 | 88 | 1023.5 |
| 20260902184824 | 69 | 343 | 1.0 | 2.0 | 0.00 | 0.00 | 0.00 | 87 | 1023.5 |
| 20260902184703 | 70 | 342 | 1.0 | 2.0 | 0.00 | 0.00 | 0.00 | 87 | 1023.5 |
| 20260902184603 | 70 | 331 | 1.0 | 3.0 | 0.00 | 0.00 | 0.00 | 87 | 1023.3 |
| 20260902184503 | 70 | 330 | 1.0 | 3.0 | 0.00 | 0.00 | 0.00 | 87 | 1023.3 |
| 20260902184403 | 70 | 331 | 1.0 | 3.0 | 0.00 | 0.00 | 0.00 | 86 | 1023.3 |
| 20260902184303 | 70 | 333 | 1.0 | 3.0 | 0.00 | 0.00 | 0.00 | 86 | 1023.1 |
| 20260902184203 | 70 | 332 | 1.0 | 3.0 | 0.00 | 0.00 | 0.00 | 86 | 1023.3 |
| 20260902184103 | 70 | 332 | 1.0 | 3.0 | 0.00 | 0.00 | 0.00 | 86 | 1023.5 |
| 20260902184003 | 71 | 334 | 1.0 | 3.0 | 0.00 | 0.00 | 0.00 | 86 | 1023.3 |
| 20260902183903 | 71 | 335 | 1.0 | 3.0 | 0.00 | 0.00 | 0.00 | 86 | 1023.2 |
| 20260902183803 | 71 | 335 | 1.0 | 3.0 | 0.00 | 0.00 | 0.00 | 86 | 1023.2 |
| 20260902183703 | 71 | 335 | 1.0 | 3.0 | 0.00 | 0.00 | 0.00 | 86 | 1023.2 |
| 20260902183603 | 71 | 336 | 1.0 | 3.0 | 0.00 | 0.00 | 0.00 | 85 | 1023.2 |
| 20260902183503 | 71 | 350 | 1.0 | 3.0 | 0.00 | 0.00 | 0.00 | 85 | 1023.3 |
| 20260902183403 | 71 | 351 | 1.0 | 3.0 | 0.00 | 0.00 | 0.00 | 85 | 1023.2 |
| 20260902183303 | 71 | 338 | 1.0 | 3.0 | 0.00 | 0.00 | 0.00 | 85 | 1023.2 |
| 20260902183203 | 71 | 336 | 1.0 | 3.0 | 0.00 | 0.00 | 0.00 | 85 | 1023.2 |
| 20260902183103 | 71 | 336 | 1.0 | 3.0 | 0.00 | 0.00 | 0.00 | 85 | 1023.3 |
| 20260902183003 | 71 | 332 | 2.0 | 3.0 | 0.00 | 0.00 | 0.00 | 85 | 1023.3 |
| 20260902182924 | 71 | 317 | 2.0 | 6.0 | 0.00 | 0.00 | 0.00 | 85 | 1023.3 |
| 20260902182803 | 71 | 314 | 2.0 | 6.0 | 0.00 | 0.00 | 0.00 | 85 | 1023.3 |
| 20260902182703 | 71 | 317 | 2.0 | 6.0 | 0.00 | 0.00 | 0.00 | 85 | 1023.3 |
| 20260902182603 | 71 | 319 | 2.0 | 6.0 | 0.00 | 0.00 | 0.00 | 84 | 1023.5 |
| 20260902182524 | 71 | 316 | 2.0 | 6.0 | 0.00 | 0.00 | 0.00 | 85 | 1023.2 |
| 20260902182403 | 71 | 315 | 2.0 | 6.0 | 0.00 | 0.00 | 0.00 | 84 | 1023.6 |
| 20260902182306 | 71 | 318 | 2.0 | 6.0 | 0.00 | 0.00 | 0.00 | 84 | 1023.5 |
| 20260902182203 | 71 | 318 | 2.0 | 6.0 | 0.00 | 0.00 | 0.00 | 84 | 1023.5 |
| 20260902182124 | 71 | 317 | 2.0 | 6.0 | 0.00 | 0.00 | 0.00 | 84 | 1023.5 |
| 20260902182004 | 72 | 318 | 2.0 | 6.0 | 0.00 | 0.00 | 0.00 | 83 | 1023.5 |
| 20260902181903 | 72 | 328 | 2.0 | 4.0 | 0.00 | 0.00 | 0.00 | 83 | 1023.3 |
| 20260902181803 | 72 | 333 | 2.0 | 4.0 | 0.00 | 0.00 | 0.00 | 83 | 1023.6 |
| 20260902181703 | 72 | 324 | 2.0 | 4.0 | 0.00 | 0.00 | 0.00 | 84 | 1023.3 |
| 20260902181603 | 72 | 317 | 2.0 | 4.0 | 0.00 | 0.00 | 0.00 | 83 | 1023.6 |
| 20260902181503 | 72 | 316 | 2.0 | 4.0 | 0.00 | 0.00 | 0.00 | 84 | 1023.3 |
| 20260902181424 | 72 | 316 | 2.0 | 4.0 | 0.00 | 0.00 | 0.00 | 84 | 1023.3 |
| 20260902181303 | 72 | 316 | 2.0 | 4.0 | 0.00 | 0.00 | 0.00 | 84 | 1023.3 |
| 20260902181203 | 71 | 317 | 2.0 | 4.0 | 0.00 | 0.00 | 0.00 | 84 | 1023.5 |
| 20260902181124 | 71 | 317 | 2.0 | 4.0 | 0.00 | 0.00 | 0.00 | 84 | 1023.5 |
| 20260902181003 | 71 | 310 | 2.0 | 4.0 | 0.00 | 0.00 | 0.00 | 84 | 1023.6 |
| 20260902180924 | 72 | 310 | 2.0 | 4.0 | 0.00 | 0.00 | 0.00 | 84 | 1023.6 |
| 20260902180803 | 72 | 312 | 2.0 | 4.0 | 0.00 | 0.00 | 0.00 | 84 | 1023.7 |
| 20260902180703 | 72 | 311 | 2.0 | 4.0 | 0.00 | 0.00 | 0.00 | 83 | 1023.7 |
| 20260902180624 | 72 | 314 | 2.0 | 4.0 | 0.00 | 0.00 | 0.00 | 83 | 1023.7 |
| 20260902180503 | 72 | 318 | 2.0 | 3.0 | 0.00 | 0.00 | 0.00 | 82 | 1023.5 |
| 20260902180403 | 72 | 318 | 2.0 | 3.0 | 0.00 | 0.00 | 0.00 | 82 | 1023.5 |
| 20260902180324 | 72 | 318 | 2.0 | 3.0 | 0.00 | 0.00 | 0.00 | 82 | 1023.5 |
| 20260902180203 | 73 | 308 | 2.0 | 4.0 | 0.00 | 0.00 | 0.00 | 82 | 1023.6 |
| 20260902180005 | 72 | 310 | 2.0 | 4.0 | 0.00 | 0.00 | 0.00 | 82 | 1023.7 |
| 20260902175903 | 72 | 309 | 2.0 | 4.0 | 0.00 | 0.00 | 0.00 | 82 | 1023.3 |
| 20260902175803 | 72 | 309 | 2.0 | 4.0 | 0.00 | 0.00 | 0.00 | 82 | 1023.3 |
| 20260902175724 | 72 | 309 | 2.0 | 4.0 | 0.00 | 0.00 | 0.00 | 82 | 1023.6 |
| 20260902175625 | 72 | 306 | 2.0 | 4.0 | 0.00 | 0.00 | 0.00 | 82 | 1023.6 |
| 20260902175503 | 72 | 306 | 2.0 | 4.0 | 0.00 | 0.00 | 0.00 | 82 | 1023.7 |
| 20260902175403 | 73 | 309 | 2.0 | 4.0 | 0.00 | 0.00 | 0.00 | 82 | 1023.6 |
| 20260902175307 | 73 | 309 | 2.0 | 4.0 | 0.00 | 0.00 | 0.00 | 82 | 1023.6 |
| 20260902175204 | 73 | 308 | 2.0 | 4.0 | 0.00 | 0.00 | 0.00 | 82 | 1023.6 |
| 20260902175124 | 73 | 315 | 2.0 | 4.0 | 0.00 | 0.00 | 0.00 | 82 | 1023.7 |
| 20260902175024 | 73 | 312 | 2.0 | 4.0 | 0.00 | 0.00 | 0.00 | 82 | 1023.6 |
| 20260902174903 | 73 | 306 | 2.0 | 6.0 | 0.00 | 0.00 | 0.00 | 82 | 1023.6 |
| 20260902174824 | 73 | 308 | 2.0 | 6.0 | 0.00 | 0.00 | 0.00 | 82 | 1023.7 |
| 20260902174703 | 73 | 302 | 2.0 | 6.0 | 0.00 | 0.00 | 0.00 | 82 | 1023.6 |
| 20260902174603 | 73 | 305 | 2.0 | 6.0 | 0.00 | 0.00 | 0.00 | 82 | 1023.7 |
| 20260902174503 | 72 | 305 | 3.0 | 6.0 | 0.00 | 0.00 | 0.00 | 83 | 1023.6 |
| 20260902174424 | 72 | 305 | 3.0 | 6.0 | 0.00 | 0.00 | 0.00 | 83 | 1023.6 |
| 20260902174303 | 72 | 300 | 2.0 | 6.0 | 0.00 | 0.00 | 0.00 | 82 | 1023.7 |
| 20260902174224 | 72 | 300 | 2.0 | 6.0 | 0.00 | 0.00 | 0.00 | 82 | 1023.7 |
| 20260902174103 | 72 | 301 | 2.0 | 6.0 | 0.00 | 0.00 | 0.00 | 83 | 1023.8 |
| 20260902174024 | 72 | 300 | 3.0 | 6.0 | 0.00 | 0.00 | 0.00 | 83 | 1023.6 |
| 20260902173924 | 72 | 305 | 2.0 | 6.0 | 0.00 | 0.00 | 0.00 | 83 | 1023.5 |
| 20260902173803 | 72 | 313 | 3.0 | 6.0 | 0.00 | 0.00 | 0.00 | 83 | 1023.7 |
| 20260902173724 | 72 | 306 | 3.0 | 6.0 | 0.00 | 0.00 | 0.00 | 82 | 1023.3 |
| 20260902173603 | 73 | 313 | 3.0 | 6.0 | 0.00 | 0.00 | 0.00 | 82 | 1023.6 |
| 20260902173503 | 73 | 313 | 2.0 | 6.0 | 0.00 | 0.00 | 0.00 | 82 | 1023.7 |
| 20260902173403 | 73 | 314 | 2.0 | 6.0 | 0.00 | 0.00 | 0.00 | 82 | 1023.6 |
| 20260902173303 | 73 | 309 | 3.0 | 6.0 | 0.00 | 0.00 | 0.00 | 82 | 1023.6 |
| 20260902173203 | 73 | 312 | 3.0 | 6.0 | 0.00 | 0.00 | 0.00 | 81 | 1023.8 |
| 20260902173103 | 73 | 305 | 3.0 | 6.0 | 0.00 | 0.00 | 0.00 | 81 | 1023.7 |
| 20260902173003 | 74 | 304 | 3.0 | 6.0 | 0.00 | 0.00 | 0.00 | 81 | 1023.5 |
| 20260902172924 | 74 | 304 | 3.0 | 6.0 | 0.00 | 0.00 | 0.00 | 81 | 1023.5 |
| 20260902172803 | 74 | 293 | 3.0 | 6.0 | 0.00 | 0.00 | 0.00 | 80 | 1023.7 |
| 20260902172703 | 73 | 297 | 3.0 | 6.0 | 0.00 | 0.00 | 0.00 | 81 | 1023.6 |
| 20260902172603 | 73 | 297 | 3.0 | 6.0 | 0.00 | 0.00 | 0.00 | 81 | 1023.6 |
| 20260902172524 | 73 | 301 | 3.0 | 6.0 | 0.00 | 0.00 | 0.00 | 81 | 1023.6 |
| 20260902172403 | 73 | 297 | 3.0 | 6.0 | 0.00 | 0.00 | 0.00 | 81 | 1023.7 |
| 20260902172324 | 73 | 291 | 3.0 | 6.0 | 0.00 | 0.00 | 0.00 | 81 | 1023.7 |
| 20260902172224 | 73 | 289 | 3.0 | 6.0 | 0.00 | 0.00 | 0.00 | 82 | 1023.6 |
| 20260902172103 | 73 | 283 | 3.0 | 7.0 | 0.00 | 0.00 | 0.00 | 81 | 1023.7 |
| 20260902172004 | 73 | 287 | 3.0 | 7.0 | 0.00 | 0.00 | 0.00 | 81 | 1023.6 |
| 20260902171924 | 73 | 290 | 4.0 | 7.0 | 0.00 | 0.00 | 0.00 | 81 | 1023.6 |
| 20260902171803 | 73 | 288 | 3.0 | 7.0 | 0.00 | 0.00 | 0.00 | 81 | 1023.6 |
| 20260902171703 | 73 | 293 | 3.0 | 7.0 | 0.00 | 0.00 | 0.00 | 81 | 1023.6 |
| 20260902171603 | 73 | 285 | 4.0 | 8.0 | 0.00 | 0.00 | 0.00 | 81 | 1023.6 |
| 20260902171524 | 73 | 285 | 4.0 | 8.0 | 0.00 | 0.00 | 0.00 | 81 | 1023.6 |
| 20260902171424 | 73 | 282 | 4.0 | 8.0 | 0.00 | 0.00 | 0.00 | 81 | 1023.7 |
| 20260902171324 | 73 | 281 | 4.0 | 8.0 | 0.00 | 0.00 | 0.00 | 81 | 1023.6 |
| 20260902171203 | 73 | 280 | 4.0 | 8.0 | 0.00 | 0.00 | 0.00 | 81 | 1023.7 |
| 20260902171103 | 73 | 288 | 4.0 | 8.0 | 0.00 | 0.00 | 0.00 | 81 | 1023.6 |
| 20260902171003 | 73 | 288 | 4.0 | 8.0 | 0.00 | 0.00 | 0.00 | 81 | 1023.6 |
| 20260902170903 | 73 | 289 | 4.0 | 8.0 | 0.00 | 0.00 | 0.00 | 81 | 1023.6 |
| 20260902170803 | 73 | 284 | 4.0 | 8.0 | 0.00 | 0.00 | 0.00 | 81 | 1023.8 |
| 20260902170703 | 74 | 287 | 4.0 | 8.0 | 0.00 | 0.00 | 0.00 | 80 | 1023.6 |
| 20260902170603 | 74 | 292 | 4.0 | 8.0 | 0.00 | 0.00 | 0.00 | 80 | 1023.7 |
| 20260902170503 | 74 | 304 | 3.0 | 7.0 | 0.00 | 0.00 | 0.00 | 80 | 1023.5 |
| 20260902170403 | 74 | 304 | 3.0 | 7.0 | 0.00 | 0.00 | 0.00 | 79 | 1023.6 |
| 20260902170324 | 74 | 304 | 3.0 | 7.0 | 0.00 | 0.00 | 0.00 | 79 | 1023.6 |
| 20260902170224 | 74 | 308 | 3.0 | 7.0 | 0.00 | 0.00 | 0.00 | 79 | 1023.7 |
| 20260902170124 | 74 | 314 | 3.0 | 6.0 | 0.00 | 0.00 | 0.00 | 79 | 1023.6 |
| 20260902170003 | 74 | 305 | 3.0 | 6.0 | 0.00 | 0.00 | 0.00 | 80 | 1023.7 |
| 20260902165903 | 74 | 305 | 4.0 | 6.0 | 0.00 | 0.00 | 0.00 | 79 | 1023.7 |
| 20260902165803 | 74 | 315 | 4.0 | 8.0 | 0.00 | 0.00 | 0.00 | 80 | 1023.7 |
| 20260902165703 | 74 | 313 | 4.0 | 8.0 | 0.00 | 0.00 | 0.00 | 79 | 1023.7 |
| 20260902165624 | 74 | 310 | 4.0 | 8.0 | 0.00 | 0.00 | 0.00 | 79 | 1023.5 |
| 20260902165503 | 74 | 307 | 4.0 | 8.0 | 0.00 | 0.00 | 0.00 | 79 | 1023.7 |
| 20260902165403 | 74 | 312 | 4.0 | 8.0 | 0.00 | 0.00 | 0.00 | 79 | 1023.6 |
| 20260902165308 | 74 | 311 | 4.0 | 8.0 | 0.00 | 0.00 | 0.00 | 79 | 1023.5 |
| 20260902165203 | 74 | 310 | 3.0 | 8.0 | 0.00 | 0.00 | 0.00 | 78 | 1023.6 |
| 20260902165103 | 75 | 308 | 4.0 | 8.0 | 0.00 | 0.00 | 0.00 | 78 | 1023.3 |
| 20260902165024 | 75 | 308 | 4.0 | 8.0 | 0.00 | 0.00 | 0.00 | 78 | 1023.3 |
| 20260902164903 | 75 | 309 | 3.0 | 8.0 | 0.00 | 0.00 | 0.00 | 78 | 1023.6 |
| 20260902164803 | 74 | 306 | 3.0 | 7.0 | 0.00 | 0.00 | 0.00 | 79 | 1023.3 |
| 20260902164703 | 74 | 302 | 3.0 | 7.0 | 0.00 | 0.00 | 0.00 | 79 | 1023.6 |
| 20260902164603 | 74 | 301 | 3.0 | 7.0 | 0.00 | 0.00 | 0.00 | 79 | 1023.6 |
| 20260902164503 | 74 | 301 | 3.0 | 7.0 | 0.00 | 0.00 | 0.00 | 79 | 1023.6 |
| 20260902164403 | 74 | 302 | 3.0 | 7.0 | 0.00 | 0.00 | 0.00 | 79 | 1023.5 |
| 20260902164303 | 75 | 295 | 3.0 | 7.0 | 0.00 | 0.00 | 0.00 | 78 | 1023.6 |
| 20260902164203 | 75 | 295 | 3.0 | 7.0 | 0.00 | 0.00 | 0.00 | 78 | 1023.6 |
| 20260902164103 | 75 | 300 | 3.0 | 7.0 | 0.00 | 0.00 | 0.00 | 78 | 1023.5 |
| 20260902164003 | 75 | 300 | 3.0 | 6.0 | 0.00 | 0.00 | 0.00 | 78 | 1023.3 |
| 20260902163903 | 75 | 304 | 3.0 | 6.0 | 0.00 | 0.00 | 0.00 | 78 | 1023.6 |
| 20260902163803 | 75 | 309 | 3.0 | 6.0 | 0.00 | 0.00 | 0.00 | 78 | 1023.5 |
| 20260902163703 | 75 | 297 | 3.0 | 8.0 | 0.00 | 0.00 | 0.00 | 78 | 1023.5 |
| 20260902163603 | 74 | 301 | 3.0 | 8.0 | 0.00 | 0.00 | 0.00 | 79 | 1023.6 |
| 20260902163503 | 74 | 301 | 3.0 | 8.0 | 0.00 | 0.00 | 0.00 | 79 | 1023.3 |
| 20260902163403 | 74 | 301 | 4.0 | 8.0 | 0.00 | 0.00 | 0.00 | 79 | 1023.3 |
| 20260902163303 | 74 | 300 | 3.0 | 8.0 | 0.00 | 0.00 | 0.00 | 79 | 1023.5 |
| 20260902163203 | 74 | 296 | 3.0 | 8.0 | 0.00 | 0.00 | 0.00 | 79 | 1023.2 |
| 20260902163124 | 74 | 296 | 3.0 | 8.0 | 0.00 | 0.00 | 0.00 | 79 | 1023.2 |
| 20260902163003 | 74 | 291 | 3.0 | 8.0 | 0.00 | 0.00 | 0.00 | 79 | 1023.5 |
| 20260902162903 | 74 | 298 | 3.0 | 8.0 | 0.00 | 0.00 | 0.00 | 79 | 1023.5 |
| 20260902162803 | 75 | 296 | 3.0 | 8.0 | 0.00 | 0.00 | 0.00 | 79 | 1023.3 |
| 20260902162703 | 75 | 296 | 3.0 | 8.0 | 0.00 | 0.00 | 0.00 | 79 | 1023.3 |
| 20260902162603 | 75 | 307 | 3.0 | 7.0 | 0.00 | 0.00 | 0.00 | 79 | 1023.6 |
| 20260902162524 | 75 | 306 | 3.0 | 6.0 | 0.00 | 0.00 | 0.00 | 79 | 1023.7 |
| 20260902162424 | 75 | 299 | 3.0 | 6.0 | 0.00 | 0.00 | 0.00 | 79 | 1023.7 |
| 20260902162306 | 75 | 300 | 3.0 | 7.0 | 0.00 | 0.00 | 0.00 | 79 | 1023.7 |
| 20260902162203 | 75 | 298 | 3.0 | 8.0 | 0.00 | 0.00 | 0.00 | 78 | 1023.3 |
| 20260902162103 | 76 | 311 | 3.0 | 8.0 | 0.00 | 0.00 | 0.00 | 79 | 1023.6 |
| 20260902162003 | 76 | 315 | 3.0 | 8.0 | 0.00 | 0.00 | 0.00 | 78 | 1023.7 |
| 20260902161924 | 75 | 305 | 3.0 | 8.0 | 0.00 | 0.00 | 0.00 | 79 | 1023.6 |
| 20260902161803 | 75 | 308 | 3.0 | 8.0 | 0.00 | 0.00 | 0.00 | 80 | 1023.6 |
| 20260902161703 | 74 | 304 | 3.0 | 8.0 | 0.00 | 0.00 | 0.00 | 81 | 1023.6 |
| 20260902161603 | 74 | 306 | 3.0 | 8.0 | 0.00 | 0.00 | 0.00 | 82 | 1023.5 |
| 20260902161503 | 74 | 306 | 3.0 | 8.0 | 0.00 | 0.00 | 0.00 | 81 | 1023.6 |
| 20260902161403 | 74 | 308 | 3.0 | 8.0 | 0.00 | 0.00 | 0.00 | 81 | 1023.5 |
| 20260902161303 | 74 | 310 | 3.0 | 8.0 | 0.00 | 0.00 | 0.00 | 80 | 1023.6 |
| 20260902161203 | 74 | 314 | 3.0 | 6.0 | 0.00 | 0.00 | 0.00 | 81 | 1023.7 |
| 20260902161103 | 74 | 314 | 3.0 | 6.0 | 0.00 | 0.00 | 0.00 | 81 | 1023.7 |
| 20260902161003 | 74 | 315 | 3.0 | 6.0 | 0.00 | 0.00 | 0.00 | 81 | 1023.6 |
| 20260902160903 | 74 | 306 | 3.0 | 7.0 | 0.00 | 0.00 | 0.00 | 81 | 1023.6 |
| 20260902160824 | 74 | 307 | 4.0 | 7.0 | 0.00 | 0.00 | 0.00 | 81 | 1023.2 |
| 20260902160703 | 74 | 303 | 4.0 | 7.0 | 0.00 | 0.00 | 0.00 | 82 | 1023.7 |
| 20260902160603 | 74 | 308 | 4.0 | 7.0 | 0.00 | 0.00 | 0.00 | 82 | 1023.7 |
| 20260902160504 | 74 | 307 | 4.0 | 7.0 | 0.00 | 0.00 | 0.00 | 82 | 1023.7 |
| 20260902160403 | 74 | 306 | 4.0 | 7.0 | 0.00 | 0.00 | 0.00 | 82 | 1023.6 |
| 20260902160303 | 74 | 303 | 4.0 | 7.0 | 0.00 | 0.00 | 0.00 | 82 | 1023.6 |
| 20260902160203 | 74 | 302 | 4.0 | 7.0 | 0.00 | 0.00 | 0.00 | 82 | 1023.8 |
| 20260902160124 | 74 | 304 | 4.0 | 7.0 | 0.00 | 0.00 | 0.00 | 82 | 1023.7 |
| 20260902160003 | 74 | 298 | 4.0 | 7.0 | 0.00 | 0.00 | 0.00 | 82 | 1023.3 |
| 20260902155903 | 74 | 299 | 4.0 | 7.0 | 0.00 | 0.00 | 0.00 | 81 | 1023.6 |
| 20260902155803 | 74 | 296 | 3.0 | 6.0 | 0.00 | 0.00 | 0.00 | 81 | 1023.8 |
| 20260902155724 | 74 | 296 | 3.0 | 6.0 | 0.00 | 0.00 | 0.00 | 81 | 1023.8 |
| 20260902155603 | 74 | 303 | 3.0 | 6.0 | 0.00 | 0.00 | 0.00 | 81 | 1023.7 |
| 20260902155503 | 74 | 302 | 3.0 | 6.0 | 0.00 | 0.00 | 0.00 | 81 | 1023.6 |
| 20260902155403 | 74 | 302 | 3.0 | 6.0 | 0.00 | 0.00 | 0.00 | 81 | 1023.6 |
| 20260902155306 | 74 | 300 | 3.0 | 6.0 | 0.00 | 0.00 | 0.00 | 81 | 1023.9 |
| 20260902155203 | 74 | 294 | 4.0 | 9.0 | 0.00 | 0.00 | 0.00 | 81 | 1023.6 |
| 20260902155103 | 74 | 288 | 4.0 | 9.0 | 0.00 | 0.00 | 0.00 | 81 | 1023.8 |
| 20260902155003 | 74 | 291 | 4.0 | 9.0 | 0.00 | 0.00 | 0.00 | 81 | 1023.8 |
| 20260902154924 | 74 | 293 | 4.0 | 9.0 | 0.00 | 0.00 | 0.00 | 81 | 1023.7 |
| 20260902154803 | 74 | 297 | 4.0 | 9.0 | 0.00 | 0.00 | 0.00 | 82 | 1023.8 |
| 20260902154703 | 74 | 311 | 4.0 | 9.0 | 0.00 | 0.00 | 0.00 | 83 | 1023.7 |
| 20260902154603 | 73 | 303 | 4.0 | 9.0 | 0.00 | 0.00 | 0.00 | 82 | 1023.7 |
| 20260902154524 | 73 | 302 | 4.0 | 9.0 | 0.00 | 0.00 | 0.00 | 83 | 1023.7 |
| 20260902154403 | 74 | 294 | 4.0 | 9.0 | 0.00 | 0.00 | 0.00 | 82 | 1023.8 |
| 20260902154303 | 74 | 296 | 4.0 | 9.0 | 0.00 | 0.00 | 0.00 | 81 | 1023.8 |
| 20260902154203 | 75 | 308 | 4.0 | 7.0 | 0.00 | 0.00 | 0.00 | 80 | 1023.8 |
| 20260902154103 | 75 | 312 | 3.0 | 7.0 | 0.00 | 0.00 | 0.00 | 80 | 1023.7 |
| 20260902154003 | 75 | 299 | 3.0 | 9.0 | 0.00 | 0.00 | 0.00 | 81 | 1023.9 |
| 20260902153903 | 74 | 293 | 4.0 | 9.0 | 0.00 | 0.00 | 0.00 | 81 | 1023.8 |
| 20260902153803 | 74 | 293 | 4.0 | 9.0 | 0.00 | 0.00 | 0.00 | 81 | 1023.8 |
| 20260902153724 | 74 | 285 | 4.0 | 9.0 | 0.00 | 0.00 | 0.00 | 82 | 1023.9 |
| 20260902153603 | 74 | 279 | 4.0 | 9.0 | 0.00 | 0.00 | 0.00 | 82 | 1024.0 |
| 20260902153524 | 74 | 279 | 4.0 | 9.0 | 0.00 | 0.00 | 0.00 | 81 | 1023.9 |
| 20260902153403 | 74 | 275 | 4.0 | 9.0 | 0.00 | 0.00 | 0.00 | 81 | 1024.0 |
| 20260902153304 | 74 | 270 | 4.0 | 9.0 | 0.00 | 0.00 | 0.00 | 81 | 1023.8 |
| 20260902153203 | 74 | 270 | 4.0 | 9.0 | 0.00 | 0.00 | 0.00 | 82 | 1023.8 |
| 20260902153103 | 74 | 268 | 4.0 | 9.0 | 0.00 | 0.00 | 0.00 | 82 | 1023.8 |
| 20260902153024 | 74 | 272 | 4.0 | 9.0 | 0.00 | 0.00 | 0.00 | 81 | 1023.7 |
| 20260902152903 | 74 | 284 | 3.0 | 7.0 | 0.00 | 0.00 | 0.00 | 81 | 1023.8 |
| 20260902152803 | 74 | 299 | 3.0 | 7.0 | 0.00 | 0.00 | 0.00 | 81 | 1023.8 |
| 20260902152703 | 75 | 315 | 3.0 | 6.0 | 0.00 | 0.00 | 0.00 | 81 | 1023.7 |
| 20260902152624 | 75 | 315 | 3.0 | 6.0 | 0.00 | 0.00 | 0.00 | 81 | 1023.7 |
| 20260902152524 | 75 | 307 | 3.0 | 7.0 | 0.00 | 0.00 | 0.00 | 81 | 1023.8 |
| 20260902152403 | 75 | 312 | 3.0 | 7.0 | 0.00 | 0.00 | 0.00 | 80 | 1023.8 |
| 20260902152307 | 75 | 318 | 3.0 | 7.0 | 0.00 | 0.00 | 0.00 | 81 | 1023.7 |
| 20260902152203 | 75 | 318 | 3.0 | 7.0 | 0.00 | 0.00 | 0.00 | 81 | 1023.7 |
| 20260902152103 | 75 | 313 | 3.0 | 7.0 | 0.00 | 0.00 | 0.00 | 80 | 1023.7 |
| 20260902152003 | 75 | 316 | 3.0 | 7.0 | 0.00 | 0.00 | 0.00 | 80 | 1023.9 |
| 20260902151903 | 75 | 304 | 3.0 | 7.0 | 0.00 | 0.00 | 0.00 | 81 | 1023.7 |
| 20260902151803 | 75 | 301 | 3.0 | 7.0 | 0.00 | 0.00 | 0.00 | 81 | 1023.9 |
| 20260902151703 | 75 | 298 | 3.0 | 7.0 | 0.00 | 0.00 | 0.00 | 81 | 1023.8 |
| 20260902151603 | 75 | 300 | 3.0 | 7.0 | 0.00 | 0.00 | 0.00 | 80 | 1023.8 |
| 20260902151503 | 75 | 313 | 3.0 | 7.0 | 0.00 | 0.00 | 0.00 | 80 | 1023.9 |
| 20260902151403 | 75 | 318 | 3.0 | 7.0 | 0.00 | 0.00 | 0.00 | 80 | 1023.9 |
| 20260902151303 | 75 | 317 | 3.0 | 7.0 | 0.00 | 0.00 | 0.00 | 79 | 1023.7 |
| 20260902151203 | 75 | 316 | 4.0 | 7.0 | 0.00 | 0.00 | 0.00 | 79 | 1023.9 |
| 20260902151103 | 75 | 322 | 3.0 | 7.0 | 0.00 | 0.00 | 0.00 | 80 | 1023.8 |
| 20260902151003 | 75 | 319 | 3.0 | 7.0 | 0.00 | 0.00 | 0.00 | 79 | 1024.0 |
| 20260902150903 | 75 | 331 | 3.0 | 7.0 | 0.00 | 0.00 | 0.00 | 80 | 1023.9 |
| 20260902150803 | 75 | 338 | 3.0 | 7.0 | 0.00 | 0.00 | 0.00 | 80 | 1023.9 |
| 20260902150703 | 76 | 343 | 3.0 | 7.0 | 0.00 | 0.00 | 0.00 | 79 | 1023.9 |
| 20260902150603 | 76 | 343 | 3.0 | 7.0 | 0.00 | 0.00 | 0.00 | 79 | 1023.9 |
| 20260902150524 | 76 | 342 | 3.0 | 7.0 | 0.00 | 0.00 | 0.00 | 79 | 1023.9 |
| 20260902150403 | 76 | 337 | 3.0 | 4.0 | 0.00 | 0.00 | 0.00 | 79 | 1023.9 |
| 20260902145803 | 76 | 308 | 3.0 | 6.0 | 0.00 | 0.00 | 0.00 | 78 | 1023.9 |
| 20260902145703 | 76 | 314 | 3.0 | 6.0 | 0.00 | 0.00 | 0.00 | 78 | 1023.8 |
| 20260902145624 | 76 | 318 | 3.0 | 7.0 | 0.00 | 0.00 | 0.00 | 78 | 1024.0 |
| 20260902145503 | 76 | 313 | 3.0 | 7.0 | 0.00 | 0.00 | 0.00 | 79 | 1023.9 |
| 20260902145403 | 75 | 312 | 4.0 | 7.0 | 0.00 | 0.00 | 0.00 | 79 | 1023.9 |
| 20260902145305 | 75 | 308 | 4.0 | 10.0 | 0.00 | 0.00 | 0.00 | 80 | 1023.9 |
| 20260902145203 | 75 | 311 | 4.0 | 10.0 | 0.00 | 0.00 | 0.00 | 79 | 1024.0 |
| 20260902145103 | 75 | 314 | 4.0 | 10.0 | 0.00 | 0.00 | 0.00 | 79 | 1023.8 |
| 20260902145003 | 75 | 314 | 4.0 | 10.0 | 0.00 | 0.00 | 0.00 | 79 | 1023.8 |
| 20260902144903 | 75 | 318 | 4.0 | 10.0 | 0.00 | 0.00 | 0.00 | 79 | 1023.8 |
| 20260902144803 | 75 | 322 | 4.0 | 10.0 | 0.00 | 0.00 | 0.00 | 79 | 1023.9 |
| 20260902144724 | 76 | 330 | 3.0 | 10.0 | 0.00 | 0.00 | 0.00 | 79 | 1024.0 |
| 20260902144603 | 76 | 326 | 3.0 | 10.0 | 0.00 | 0.00 | 0.00 | 78 | 1023.9 |
| 20260902144503 | 76 | 321 | 3.0 | 10.0 | 0.00 | 0.00 | 0.00 | 78 | 1024.0 |
| 20260902144403 | 76 | 319 | 3.0 | 10.0 | 0.00 | 0.00 | 0.00 | 78 | 1023.9 |
| 20260902144303 | 76 | 315 | 3.0 | 10.0 | 0.00 | 0.00 | 0.00 | 77 | 1023.8 |
| 20260902144203 | 76 | 320 | 3.0 | 9.0 | 0.00 | 0.00 | 0.00 | 79 | 1023.9 |
| 20260902144124 | 76 | 323 | 3.0 | 9.0 | 0.00 | 0.00 | 0.00 | 79 | 1023.8 |
| 20260902144003 | 76 | 322 | 3.0 | 9.0 | 0.00 | 0.00 | 0.00 | 78 | 1024.0 |
| 20260902143903 | 75 | 325 | 4.0 | 9.0 | 0.00 | 0.00 | 0.00 | 80 | 1023.9 |
| 20260902143803 | 75 | 328 | 4.0 | 9.0 | 0.00 | 0.00 | 0.00 | 80 | 1024.1 |
| 20260902143703 | 74 | 330 | 4.0 | 9.0 | 0.00 | 0.00 | 0.00 | 81 | 1024.1 |
| 20260902143603 | 74 | 336 | 4.0 | 9.0 | 0.00 | 0.00 | 0.00 | 80 | 1024.0 |
| 20260902143503 | 74 | 342 | 4.0 | 9.0 | 0.00 | 0.00 | 0.00 | 80 | 1024.0 |
| 20260902143403 | 74 | 342 | 4.0 | 9.0 | 0.00 | 0.00 | 0.00 | 80 | 1024.0 |
| 20260902143303 | 74 | 349 | 4.0 | 9.0 | 0.00 | 0.00 | 0.00 | 81 | 1024.1 |
| 20260902143203 | 74 | 356 | 4.0 | 9.0 | 0.00 | 0.00 | 0.00 | 80 | 1024.0 |
| 20260902143103 | 74 | 357 | 3.0 | 9.0 | 0.00 | 0.00 | 0.00 | 81 | 1024.2 |
| 20260902143003 | 74 | 357 | 3.0 | 9.0 | 0.00 | 0.00 | 0.00 | 80 | 1024.2 |
| 20260902142903 | 74 | 1 | 3.0 | 9.0 | 0.00 | 0.00 | 0.00 | 80 | 1024.0 |
| 20260902142803 | 74 | 357 | 3.0 | 9.0 | 0.00 | 0.00 | 0.00 | 79 | 1024.0 |
| 20260902142705 | 75 | 354 | 3.0 | 9.0 | 0.00 | 0.00 | 0.00 | 79 | 1023.9 |
| 20260902142605 | 76 | 354 | 3.0 | 9.0 | 0.00 | 0.00 | 0.00 | 78 | 1024.1 |
| 20260902142503 | 76 | 344 | 2.0 | 7.0 | 0.00 | 0.00 | 0.00 | 78 | 1024.0 |
| 20260902142403 | 76 | 346 | 2.0 | 7.0 | 0.00 | 0.00 | 0.00 | 79 | 1024.2 |
| 20260902142306 | 76 | 345 | 2.0 | 7.0 | 0.00 | 0.00 | 0.00 | 77 | 1024.2 |
| 20260902142203 | 76 | 341 | 2.0 | 8.0 | 0.00 | 0.00 | 0.00 | 79 | 1024.1 |
| 20260902142103 | 76 | 340 | 3.0 | 8.0 | 0.00 | 0.00 | 0.00 | 78 | 1024.1 |
| 20260902142003 | 76 | 342 | 3.0 | 8.0 | 0.00 | 0.00 | 0.00 | 76 | 1024.3 |
| 20260902141903 | 76 | 345 | 3.0 | 8.0 | 0.00 | 0.00 | 0.00 | 78 | 1024.3 |
| 20260902141803 | 76 | 348 | 3.0 | 8.0 | 0.00 | 0.00 | 0.00 | 77 | 1024.2 |
| 20260902141703 | 76 | 346 | 3.0 | 8.0 | 0.00 | 0.00 | 0.00 | 78 | 1024.2 |
| 20260902141603 | 75 | 347 | 3.0 | 8.0 | 0.00 | 0.00 | 0.00 | 78 | 1024.0 |
| 20260902141524 | 75 | 353 | 3.0 | 8.0 | 0.00 | 0.00 | 0.00 | 79 | 1024.0 |
| 20260902141403 | 75 | 351 | 3.0 | 8.0 | 0.00 | 0.00 | 0.00 | 79 | 1024.1 |
| 20260902141303 | 75 | 347 | 3.0 | 8.0 | 0.00 | 0.00 | 0.00 | 79 | 1024.1 |
| 20260902141203 | 75 | 348 | 3.0 | 7.0 | 0.00 | 0.00 | 0.00 | 81 | 1024.0 |
| 20260902141103 | 75 | 344 | 3.0 | 7.0 | 0.00 | 0.00 | 0.00 | 80 | 1024.2 |
| 20260902141003 | 75 | 339 | 3.0 | 7.0 | 0.00 | 0.00 | 0.00 | 79 | 1023.9 |
| 20260902140903 | 75 | 337 | 3.0 | 7.0 | 0.00 | 0.00 | 0.00 | 79 | 1023.9 |
| 20260902140803 | 75 | 329 | 3.0 | 7.0 | 0.00 | 0.00 | 0.00 | 79 | 1024.0 |
| 20260902140724 | 75 | 329 | 3.0 | 7.0 | 0.00 | 0.00 | 0.00 | 79 | 1024.0 |
| 20260902140624 | 76 | 334 | 3.0 | 7.0 | 0.00 | 0.00 | 0.00 | 77 | 1024.0 |
| 20260902140503 | 76 | 326 | 2.0 | 7.0 | 0.00 | 0.00 | 0.00 | 77 | 1024.2 |
| 20260902140424 | 76 | 326 | 2.0 | 7.0 | 0.00 | 0.00 | 0.00 | 77 | 1024.2 |
| 20260902140303 | 76 | 324 | 2.0 | 7.0 | 0.00 | 0.00 | 0.00 | 78 | 1024.1 |
| 20260902140203 | 76 | 320 | 2.0 | 7.0 | 0.00 | 0.00 | 0.00 | 77 | 1024.1 |
| 20260902140003 | 76 | 329 | 2.0 | 7.0 | 0.00 | 0.00 | 0.00 | 79 | 1024.1 |
| 20260902135903 | 76 | 338 | 3.0 | 7.0 | 0.00 | 0.00 | 0.00 | 78 | 1024.2 |
| 20260902135824 | 76 | 338 | 3.0 | 7.0 | 0.00 | 0.00 | 0.00 | 78 | 1024.1 |
| 20260902135703 | 76 | 338 | 2.0 | 6.0 | 0.00 | 0.00 | 0.00 | 78 | 1024.1 |
| 20260902135603 | 76 | 336 | 3.0 | 7.0 | 0.00 | 0.00 | 0.00 | 77 | 1024.2 |
| 20260902135503 | 76 | 336 | 2.0 | 7.0 | 0.00 | 0.00 | 0.00 | 78 | 1024.1 |
| 20260902135403 | 76 | 338 | 3.0 | 7.0 | 0.00 | 0.00 | 0.00 | 77 | 1024.2 |
| 20260902135306 | 76 | 339 | 2.0 | 7.0 | 0.00 | 0.00 | 0.00 | 78 | 1024.1 |
| 20260902135203 | 76 | 340 | 3.0 | 7.0 | 0.00 | 0.00 | 0.00 | 78 | 1024.1 |
| 20260902135103 | 75 | 347 | 3.0 | 7.0 | 0.00 | 0.00 | 0.00 | 78 | 1024.2 |
| 20260902135003 | 75 | 342 | 3.0 | 7.0 | 0.00 | 0.00 | 0.00 | 78 | 1024.1 |
| 20260902134903 | 75 | 327 | 3.0 | 9.0 | 0.00 | 0.00 | 0.00 | 78 | 1024.1 |
| 20260902134803 | 75 | 326 | 3.0 | 9.0 | 0.00 | 0.00 | 0.00 | 78 | 1024.3 |
| 20260902134724 | 75 | 326 | 3.0 | 9.0 | 0.00 | 0.00 | 0.00 | 78 | 1024.3 |
| 20260902134603 | 75 | 329 | 3.0 | 9.0 | 0.00 | 0.00 | 0.00 | 77 | 1024.1 |
| 20260902134503 | 76 | 330 | 3.0 | 9.0 | 0.00 | 0.00 | 0.00 | 79 | 1024.2 |
| 20260902134403 | 75 | 330 | 3.0 | 9.0 | 0.00 | 0.00 | 0.00 | 78 | 1024.2 |
| 20260902134303 | 75 | 330 | 3.0 | 9.0 | 0.00 | 0.00 | 0.00 | 78 | 1024.3 |
| 20260902134203 | 75 | 334 | 3.0 | 9.0 | 0.00 | 0.00 | 0.00 | 78 | 1024.1 |
| 20260902134103 | 75 | 332 | 3.0 | 9.0 | 0.00 | 0.00 | 0.00 | 78 | 1024.2 |
| 20260902134024 | 76 | 328 | 3.0 | 9.0 | 0.00 | 0.00 | 0.00 | 78 | 1024.3 |
| 20260902133924 | 76 | 331 | 3.0 | 9.0 | 0.00 | 0.00 | 0.00 | 77 | 1024.4 |
| 20260902133824 | 75 | 347 | 3.0 | 7.0 | 0.00 | 0.00 | 0.00 | 79 | 1024.2 |
| 20260902133703 | 75 | 350 | 3.0 | 7.0 | 0.00 | 0.00 | 0.00 | 80 | 1024.4 |
| 20260902133603 | 75 | 351 | 4.0 | 7.0 | 0.00 | 0.00 | 0.00 | 79 | 1024.3 |
| 20260902133503 | 75 | 350 | 4.0 | 8.0 | 0.00 | 0.00 | 0.00 | 80 | 1024.2 |
| 20260902133403 | 74 | 351 | 4.0 | 8.0 | 0.00 | 0.00 | 0.00 | 81 | 1024.3 |
| 20260902133303 | 74 | 348 | 4.0 | 8.0 | 0.00 | 0.00 | 0.00 | 81 | 1024.3 |
| 20260902133203 | 74 | 348 | 4.0 | 8.0 | 0.00 | 0.00 | 0.00 | 81 | 1024.1 |
| 20260902133103 | 73 | 351 | 4.0 | 8.0 | 0.00 | 0.00 | 0.00 | 82 | 1024.2 |
| 20260902133003 | 73 | 351 | 4.0 | 8.0 | 0.00 | 0.00 | 0.00 | 82 | 1024.2 |
| 20260902132903 | 73 | 346 | 4.0 | 8.0 | 0.00 | 0.00 | 0.00 | 82 | 1024.2 |
| 20260902132803 | 73 | 345 | 4.0 | 8.0 | 0.00 | 0.00 | 0.00 | 81 | 1024.2 |
| 20260902132703 | 74 | 343 | 4.0 | 8.0 | 0.00 | 0.00 | 0.00 | 80 | 1024.3 |
| 20260902132624 | 74 | 340 | 4.0 | 8.0 | 0.00 | 0.00 | 0.00 | 80 | 1024.3 |
| 20260902132524 | 74 | 344 | 4.0 | 8.0 | 0.00 | 0.00 | 0.00 | 79 | 1024.2 |
| 20260902132403 | 74 | 338 | 4.0 | 7.0 | 0.00 | 0.00 | 0.00 | 80 | 1024.2 |
| 20260902132306 | 74 | 336 | 4.0 | 7.0 | 0.00 | 0.00 | 0.00 | 81 | 1024.2 |
| 20260902132203 | 74 | 341 | 4.0 | 7.0 | 0.00 | 0.00 | 0.00 | 81 | 1024.4 |
| 20260902132103 | 74 | 341 | 4.0 | 7.0 | 0.00 | 0.00 | 0.00 | 81 | 1024.0 |
| 20260902132003 | 73 | 343 | 4.0 | 7.0 | 0.00 | 0.00 | 0.00 | 81 | 1024.2 |
| 20260902131903 | 73 | 349 | 4.0 | 8.0 | 0.00 | 0.00 | 0.00 | 81 | 1024.2 |
| 20260902131803 | 73 | 349 | 5.0 | 8.0 | 0.00 | 0.00 | 0.00 | 81 | 1024.2 |
| 20260902131703 | 73 | 349 | 4.0 | 8.0 | 0.00 | 0.00 | 0.00 | 80 | 1024.2 |
| 20260902131603 | 74 | 351 | 4.0 | 8.0 | 0.00 | 0.00 | 0.00 | 81 | 1024.3 |
| 20260902131503 | 74 | 351 | 4.0 | 8.0 | 0.00 | 0.00 | 0.00 | 80 | 1024.2 |
| 20260902131403 | 74 | 352 | 4.0 | 8.0 | 0.00 | 0.00 | 0.00 | 80 | 1024.2 |
| 20260902131303 | 73 | 355 | 4.0 | 8.0 | 0.00 | 0.00 | 0.00 | 80 | 1024.2 |
| 20260902131203 | 74 | 355 | 4.0 | 8.0 | 0.00 | 0.00 | 0.00 | 80 | 1024.1 |
| 20260902131103 | 74 | 355 | 4.0 | 8.0 | 0.00 | 0.00 | 0.00 | 79 | 1024.2 |
| 20260902131003 | 74 | 355 | 4.0 | 8.0 | 0.00 | 0.00 | 0.00 | 79 | 1024.2 |
| 20260902130903 | 74 | 353 | 4.0 | 8.0 | 0.00 | 0.00 | 0.00 | 79 | 1024.1 |
| 20260902130824 | 73 | 345 | 4.0 | 8.0 | 0.00 | 0.00 | 0.00 | 80 | 1024.1 |
| 20260902130703 | 73 | 348 | 4.0 | 8.0 | 0.00 | 0.00 | 0.00 | 79 | 1024.2 |
| 20260902130603 | 73 | 343 | 4.0 | 8.0 | 0.00 | 0.00 | 0.00 | 79 | 1024.1 |
| 20260902130524 | 74 | 344 | 4.0 | 8.0 | 0.00 | 0.00 | 0.00 | 79 | 1024.1 |
| 20260902130424 | 74 | 340 | 4.0 | 8.0 | 0.00 | 0.00 | 0.00 | 78 | 1024.1 |
| 20260902130324 | 74 | 344 | 4.0 | 8.0 | 0.00 | 0.00 | 0.00 | 78 | 1024.3 |
| 20260902130224 | 73 | 342 | 4.0 | 8.0 | 0.00 | 0.00 | 0.00 | 78 | 1024.3 |
| 20260902130103 | 73 | 343 | 4.0 | 8.0 | 0.00 | 0.00 | 0.00 | 79 | 1024.2 |
| 20260902130003 | 74 | 339 | 3.0 | 8.0 | 0.00 | 0.00 | 0.00 | 78 | 1024.2 |
| 20260902125903 | 74 | 340 | 3.0 | 8.0 | 0.00 | 0.00 | 0.00 | 78 | 1024.2 |
| 20260902125803 | 74 | 350 | 3.0 | 8.0 | 0.00 | 0.00 | 0.00 | 78 | 1024.1 |
| 20260902125703 | 74 | 349 | 3.0 | 8.0 | 0.00 | 0.00 | 0.00 | 77 | 1024.1 |
| 20260902125603 | 74 | 350 | 3.0 | 7.0 | 0.00 | 0.00 | 0.00 | 78 | 1024.3 |
| 20260902125503 | 74 | 345 | 3.0 | 7.0 | 0.00 | 0.00 | 0.00 | 78 | 1024.0 |
| 20260902125424 | 74 | 345 | 3.0 | 7.0 | 0.00 | 0.00 | 0.00 | 78 | 1024.0 |
| 20260902125305 | 74 | 345 | 3.0 | 7.0 | 0.00 | 0.00 | 0.00 | 78 | 1024.2 |
| 20260902125224 | 74 | 346 | 3.0 | 7.0 | 0.00 | 0.00 | 0.00 | 79 | 1024.2 |
| 20260902125103 | 74 | 350 | 4.0 | 7.0 | 0.00 | 0.00 | 0.00 | 77 | 1024.2 |
| 20260902125003 | 74 | 348 | 4.0 | 7.0 | 0.00 | 0.00 | 0.00 | 78 | 1024.1 |
| 20260902124903 | 74 | 348 | 4.0 | 7.0 | 0.00 | 0.00 | 0.00 | 78 | 1024.2 |
| 20260902124803 | 73 | 348 | 4.0 | 7.0 | 0.00 | 0.00 | 0.00 | 78 | 1024.2 |
| 20260902124703 | 73 | 349 | 5.0 | 8.0 | 0.00 | 0.00 | 0.00 | 77 | 1024.3 |
| 20260902124603 | 73 | 348 | 5.0 | 8.0 | 0.00 | 0.00 | 0.00 | 78 | 1024.2 |
| 20260902124504 | 73 | 351 | 5.0 | 8.0 | 0.00 | 0.00 | 0.00 | 79 | 1024.2 |
| 20260902124403 | 73 | 354 | 5.0 | 8.0 | 0.00 | 0.00 | 0.00 | 79 | 1024.2 |
| 20260902124303 | 72 | 352 | 5.0 | 8.0 | 0.00 | 0.00 | 0.00 | 79 | 1024.3 |
| 20260902124203 | 73 | 354 | 5.0 | 8.0 | 0.00 | 0.00 | 0.00 | 78 | 1024.1 |
| 20260902124124 | 73 | 354 | 5.0 | 8.0 | 0.00 | 0.00 | 0.00 | 78 | 1024.1 |
| 20260902124003 | 73 | 353 | 4.0 | 8.0 | 0.00 | 0.00 | 0.00 | 77 | 1024.4 |
| 20260902123903 | 73 | 354 | 5.0 | 8.0 | 0.00 | 0.00 | 0.00 | 77 | 1024.4 |
| 20260902123803 | 73 | 354 | 5.0 | 8.0 | 0.00 | 0.00 | 0.00 | 77 | 1024.4 |
| 20260902123703 | 74 | 353 | 5.0 | 8.0 | 0.00 | 0.00 | 0.00 | 77 | 1024.2 |
| 20260902123603 | 73 | 350 | 4.0 | 8.0 | 0.00 | 0.00 | 0.00 | 77 | 1024.3 |
| 20260902123503 | 73 | 353 | 4.0 | 8.0 | 0.00 | 0.00 | 0.00 | 77 | 1024.3 |
| 20260902123424 | 74 | 350 | 4.0 | 8.0 | 0.00 | 0.00 | 0.00 | 77 | 1024.3 |
| 20260902123303 | 74 | 349 | 4.0 | 8.0 | 0.00 | 0.00 | 0.00 | 76 | 1024.3 |
| 20260902123203 | 74 | 352 | 4.0 | 8.0 | 0.00 | 0.00 | 0.00 | 76 | 1024.3 |
| 20260902123103 | 74 | 349 | 4.0 | 8.0 | 0.00 | 0.00 | 0.00 | 75 | 1024.3 |
| 20260902123024 | 74 | 351 | 4.0 | 8.0 | 0.00 | 0.00 | 0.00 | 76 | 1024.3 |
| 20260902122903 | 74 | 349 | 4.0 | 8.0 | 0.00 | 0.00 | 0.00 | 75 | 1024.5 |
| 20260902122803 | 74 | 347 | 4.0 | 7.0 | 0.00 | 0.00 | 0.00 | 74 | 1024.3 |
| 20260902122703 | 74 | 347 | 3.0 | 7.0 | 0.00 | 0.00 | 0.00 | 74 | 1024.2 |
| 20260902122603 | 74 | 348 | 3.0 | 7.0 | 0.00 | 0.00 | 0.00 | 74 | 1024.4 |
| 20260902122503 | 74 | 343 | 3.0 | 7.0 | 0.00 | 0.00 | 0.00 | 72 | 1024.3 |
| 20260902122403 | 74 | 341 | 3.0 | 7.0 | 0.00 | 0.00 | 0.00 | 74 | 1024.4 |
| 20260902122324 | 74 | 341 | 3.0 | 7.0 | 0.00 | 0.00 | 0.00 | 74 | 1024.4 |
| 20260902122203 | 75 | 343 | 3.0 | 7.0 | 0.00 | 0.00 | 0.00 | 73 | 1024.2 |
| 20260902122103 | 75 | 342 | 3.0 | 6.0 | 0.00 | 0.00 | 0.00 | 74 | 1024.2 |
| 20260902122003 | 74 | 343 | 3.0 | 6.0 | 0.00 | 0.00 | 0.00 | 76 | 1024.5 |
| 20260902121903 | 75 | 345 | 3.0 | 6.0 | 0.00 | 0.00 | 0.00 | 75 | 1024.4 |
| 20260902121803 | 75 | 345 | 3.0 | 6.0 | 0.00 | 0.00 | 0.00 | 75 | 1024.4 |
| 20260902121703 | 74 | 350 | 3.0 | 6.0 | 0.00 | 0.00 | 0.00 | 73 | 1024.3 |
| 20260902121603 | 74 | 346 | 3.0 | 6.0 | 0.00 | 0.00 | 0.00 | 75 | 1024.3 |
| 20260902121503 | 74 | 347 | 3.0 | 6.0 | 0.00 | 0.00 | 0.00 | 74 | 1024.5 |
| 20260902121403 | 74 | 353 | 3.0 | 6.0 | 0.00 | 0.00 | 0.00 | 74 | 1024.3 |
| 20260902121303 | 74 | 356 | 3.0 | 6.0 | 0.00 | 0.00 | 0.00 | 73 | 1024.2 |
| 20260902121203 | 74 | 357 | 3.0 | 6.0 | 0.00 | 0.00 | 0.00 | 74 | 1024.4 |
| 20260902121103 | 75 | 356 | 3.0 | 6.0 | 0.00 | 0.00 | 0.00 | 72 | 1024.2 |
| 20260902121003 | 76 | 354 | 2.0 | 6.0 | 0.00 | 0.00 | 0.00 | 71 | 1024.3 |
| 20260902120903 | 76 | 352 | 2.0 | 6.0 | 0.00 | 0.00 | 0.00 | 72 | 1024.2 |
| 20260902120824 | 76 | 351 | 2.0 | 6.0 | 0.00 | 0.00 | 0.00 | 71 | 1024.1 |
| 20260902120724 | 76 | 351 | 2.0 | 6.0 | 0.00 | 0.00 | 0.00 | 71 | 1024.1 |
| 20260902120603 | 75 | 357 | 2.0 | 6.0 | 0.00 | 0.00 | 0.00 | 74 | 1024.2 |
| 20260902120503 | 75 | 350 | 2.0 | 6.0 | 0.00 | 0.00 | 0.00 | 71 | 1024.3 |
| 20260902120403 | 75 | 346 | 2.0 | 6.0 | 0.00 | 0.00 | 0.00 | 73 | 1024.4 |
| 20260902120303 | 75 | 345 | 2.0 | 6.0 | 0.00 | 0.00 | 0.00 | 72 | 1024.3 |
| 20260902120224 | 75 | 345 | 2.0 | 6.0 | 0.00 | 0.00 | 0.00 | 72 | 1024.3 |
| 20260902120003 | 75 | 344 | 2.0 | 6.0 | 0.00 | 0.00 | 0.00 | 72 | 1024.3 |
| 20260902115903 | 76 | 349 | 2.0 | 6.0 | 0.00 | 0.00 | 0.00 | 71 | 1024.5 |
| 20260902115803 | 76 | 347 | 2.0 | 6.0 | 0.00 | 0.00 | 0.00 | 71 | 1024.4 |
| 20260902115703 | 76 | 346 | 2.0 | 6.0 | 0.00 | 0.00 | 0.00 | 71 | 1024.4 |
| 20260902115603 | 76 | 344 | 2.0 | 6.0 | 0.00 | 0.00 | 0.00 | 70 | 1024.3 |
| 20260902115503 | 76 | 342 | 2.0 | 6.0 | 0.00 | 0.00 | 0.00 | 68 | 1024.4 |
| 20260902115403 | 76 | 347 | 2.0 | 6.0 | 0.00 | 0.00 | 0.00 | 70 | 1024.4 |
| 20260902115307 | 75 | 341 | 2.0 | 6.0 | 0.00 | 0.00 | 0.00 | 72 | 1024.5 |
| 20260902115203 | 76 | 342 | 2.0 | 6.0 | 0.00 | 0.00 | 0.00 | 70 | 1024.1 |
| 20260902115103 | 76 | 339 | 2.0 | 6.0 | 0.00 | 0.00 | 0.00 | 70 | 1024.5 |
| 20260902115003 | 76 | 339 | 2.0 | 6.0 | 0.00 | 0.00 | 0.00 | 70 | 1024.5 |
| 20260902114903 | 76 | 338 | 2.0 | 6.0 | 0.00 | 0.00 | 0.00 | 69 | 1024.6 |
| 20260902114803 | 76 | 336 | 1.0 | 3.0 | 0.00 | 0.00 | 0.00 | 70 | 1024.5 |
| 20260902114703 | 76 | 331 | 2.0 | 3.0 | 0.00 | 0.00 | 0.00 | 69 | 1024.3 |
| 20260902114603 | 76 | 329 | 2.0 | 3.0 | 0.00 | 0.00 | 0.00 | 72 | 1024.4 |
| 20260902114503 | 76 | 320 | 2.0 | 3.0 | 0.00 | 0.00 | 0.00 | 73 | 1024.4 |
| 20260902114424 | 76 | 325 | 2.0 | 4.0 | 0.00 | 0.00 | 0.00 | 71 | 1024.6 |
| 20260902114303 | 76 | 328 | 2.0 | 4.0 | 0.00 | 0.00 | 0.00 | 70 | 1024.6 |
| 20260902114203 | 76 | 332 | 2.0 | 4.0 | 0.00 | 0.00 | 0.00 | 73 | 1024.5 |
| 20260902114103 | 75 | 332 | 2.0 | 4.0 | 0.00 | 0.00 | 0.00 | 71 | 1024.5 |
| 20260902114003 | 75 | 335 | 2.0 | 4.0 | 0.00 | 0.00 | 0.00 | 72 | 1024.4 |
| 20260902113903 | 74 | 324 | 2.0 | 4.0 | 0.00 | 0.00 | 0.00 | 74 | 1024.4 |
| 20260902113803 | 74 | 322 | 2.0 | 4.0 | 0.00 | 0.00 | 0.00 | 72 | 1024.5 |
| 20260902113703 | 74 | 322 | 2.0 | 4.0 | 0.00 | 0.00 | 0.00 | 72 | 1024.5 |
| 20260902113603 | 75 | 325 | 2.0 | 4.0 | 0.00 | 0.00 | 0.00 | 71 | 1024.4 |
| 20260902113503 | 75 | 333 | 2.0 | 4.0 | 0.00 | 0.00 | 0.00 | 72 | 1024.4 |
| 20260902113403 | 74 | 330 | 2.0 | 4.0 | 0.00 | 0.00 | 0.00 | 73 | 1024.7 |
| 20260902113303 | 74 | 331 | 2.0 | 4.0 | 0.00 | 0.00 | 0.00 | 74 | 1024.7 |
| 20260902113203 | 74 | 329 | 2.0 | 4.0 | 0.00 | 0.00 | 0.00 | 74 | 1024.6 |
| 20260902113103 | 74 | 331 | 2.0 | 4.0 | 0.00 | 0.00 | 0.00 | 73 | 1024.6 |
| 20260902113003 | 75 | 330 | 2.0 | 4.0 | 0.00 | 0.00 | 0.00 | 71 | 1024.6 |
| 20260902112903 | 75 | 346 | 1.0 | 3.0 | 0.00 | 0.00 | 0.00 | 70 | 1024.7 |
| 20260902112824 | 75 | 348 | 1.0 | 2.0 | 0.00 | 0.00 | 0.00 | 72 | 1024.5 |
| 20260902112724 | 75 | 343 | 1.0 | 4.0 | 0.00 | 0.00 | 0.00 | 73 | 1024.5 |
| 20260902112603 | 74 | 332 | 2.0 | 4.0 | 0.00 | 0.00 | 0.00 | 73 | 1024.8 |
| 20260902112503 | 74 | 333 | 2.0 | 4.0 | 0.00 | 0.00 | 0.00 | 73 | 1024.6 |
| 20260902112424 | 74 | 337 | 2.0 | 6.0 | 0.00 | 0.00 | 0.00 | 73 | 1024.7 |
| 20260902112305 | 74 | 338 | 3.0 | 6.0 | 0.00 | 0.00 | 0.00 | 72 | 1024.7 |
| 20260902112203 | 74 | 341 | 3.0 | 6.0 | 0.00 | 0.00 | 0.00 | 73 | 1024.7 |
| 20260902112103 | 73 | 339 | 3.0 | 6.0 | 0.00 | 0.00 | 0.00 | 75 | 1024.6 |
| 20260902112003 | 73 | 339 | 3.0 | 6.0 | 0.00 | 0.00 | 0.00 | 76 | 1024.7 |
| 20260902111903 | 73 | 339 | 3.0 | 6.0 | 0.00 | 0.00 | 0.00 | 74 | 1024.7 |
| 20260902111803 | 73 | 342 | 3.0 | 6.0 | 0.00 | 0.00 | 0.00 | 74 | 1024.7 |
| 20260902111703 | 73 | 347 | 3.0 | 6.0 | 0.00 | 0.00 | 0.00 | 75 | 1024.7 |
| 20260902111603 | 73 | 353 | 2.0 | 6.0 | 0.00 | 0.00 | 0.00 | 75 | 1024.8 |
| 20260902111503 | 74 | 356 | 2.0 | 6.0 | 0.00 | 0.00 | 0.00 | 75 | 1024.7 |
| 20260902111403 | 74 | 356 | 2.0 | 6.0 | 0.00 | 0.00 | 0.00 | 75 | 1024.7 |
| 20260902111303 | 74 | 356 | 2.0 | 6.0 | 0.00 | 0.00 | 0.00 | 73 | 1024.8 |
| 20260902111203 | 74 | 358 | 2.0 | 4.0 | 0.00 | 0.00 | 0.00 | 75 | 1024.8 |
| 20260902111103 | 73 | 1 | 2.0 | 4.0 | 0.00 | 0.00 | 0.00 | 75 | 1024.6 |
| 20260902111003 | 73 | 5 | 2.0 | 4.0 | 0.00 | 0.00 | 0.00 | 73 | 1024.7 |
| 20260902110903 | 73 | 3 | 2.0 | 4.0 | 0.00 | 0.00 | 0.00 | 73 | 1024.7 |
| 20260902110803 | 74 | 5 | 2.0 | 4.0 | 0.00 | 0.00 | 0.00 | 72 | 1024.7 |
| 20260902110703 | 74 | 6 | 2.0 | 4.0 | 0.00 | 0.00 | 0.00 | 73 | 1024.7 |
| 20260902110603 | 73 | 6 | 2.0 | 4.0 | 0.00 | 0.00 | 0.00 | 73 | 1024.7 |
| 20260902110524 | 73 | 8 | 2.0 | 4.0 | 0.00 | 0.00 | 0.00 | 73 | 1024.7 |
| 20260902110403 | 73 | 9 | 2.0 | 4.0 | 0.00 | 0.00 | 0.00 | 73 | 1024.8 |
| 20260902110324 | 73 | 12 | 2.0 | 4.0 | 0.00 | 0.00 | 0.00 | 73 | 1024.8 |
| 20260902110203 | 74 | 15 | 2.0 | 4.0 | 0.00 | 0.00 | 0.00 | 72 | 1024.8 |
| 20260902110024 | 75 | 16 | 1.0 | 3.0 | 0.00 | 0.00 | 0.00 | 72 | 1024.7 |
| 20260902105903 | 74 | 16 | 1.0 | 3.0 | 0.00 | 0.00 | 0.00 | 70 | 1024.7 |
| 20260902105803 | 74 | 17 | 1.0 | 3.0 | 0.00 | 0.00 | 0.00 | 73 | 1024.7 |
| 20260902105703 | 74 | 15 | 2.0 | 3.0 | 0.00 | 0.00 | 0.00 | 71 | 1024.9 |
| 20260902105624 | 74 | 17 | 1.0 | 3.0 | 0.00 | 0.00 | 0.00 | 72 | 1024.7 |
| 20260902105503 | 74 | 14 | 1.0 | 3.0 | 0.00 | 0.00 | 0.00 | 72 | 1024.7 |
| 20260902105403 | 74 | 12 | 1.0 | 2.0 | 0.00 | 0.00 | 0.00 | 72 | 1024.8 |
| 20260902105306 | 74 | 7 | 1.0 | 2.0 | 0.00 | 0.00 | 0.00 | 72 | 1024.7 |
| 20260902105203 | 74 | 1 | 1.0 | 2.0 | 0.00 | 0.00 | 0.00 | 73 | 1024.7 |
| 20260902105103 | 73 | 1 | 1.0 | 2.0 | 0.00 | 0.00 | 0.00 | 74 | 1024.7 |
| 20260902105003 | 73 | 1 | 1.0 | 2.0 | 0.00 | 0.00 | 0.00 | 74 | 1024.8 |
| 20260902104903 | 73 | 357 | 1.0 | 2.0 | 0.00 | 0.00 | 0.00 | 74 | 1024.8 |
| 20260902104803 | 73 | 359 | 1.0 | 2.0 | 0.00 | 0.00 | 0.00 | 75 | 1024.8 |
| 20260902104703 | 73 | 5 | 1.0 | 3.0 | 0.00 | 0.00 | 0.00 | 76 | 1024.8 |
| 20260902104603 | 72 | 5 | 1.0 | 3.0 | 0.00 | 0.00 | 0.00 | 75 | 1024.7 |
| 20260902104503 | 72 | 5 | 1.0 | 3.0 | 0.00 | 0.00 | 0.00 | 75 | 1024.6 |
| 20260902104403 | 72 | 4 | 1.0 | 3.0 | 0.00 | 0.00 | 0.00 | 73 | 1024.7 |
| 20260902104303 | 72 | 6 | 1.0 | 3.0 | 0.00 | 0.00 | 0.00 | 73 | 1024.7 |
| 20260902104203 | 72 | 6 | 1.0 | 3.0 | 0.00 | 0.00 | 0.00 | 73 | 1024.8 |
| 20260902104103 | 72 | 7 | 1.0 | 3.0 | 0.00 | 0.00 | 0.00 | 74 | 1024.7 |
| 20260902104003 | 73 | 10 | 1.0 | 3.0 | 0.00 | 0.00 | 0.00 | 74 | 1024.9 |
| 20260902103903 | 73 | 21 | 1.0 | 3.0 | 0.00 | 0.00 | 0.00 | 74 | 1024.9 |
| 20260902103803 | 73 | 23 | 1.0 | 3.0 | 0.00 | 0.00 | 0.00 | 75 | 1024.8 |
| 20260902103703 | 73 | 28 | 1.0 | 3.0 | 0.00 | 0.00 | 0.00 | 74 | 1024.7 |
| 20260902103603 | 74 | 34 | 1.0 | 3.0 | 0.00 | 0.00 | 0.00 | 72 | 1024.8 |
| 20260902103503 | 75 | 37 | 1.0 | 3.0 | 0.00 | 0.00 | 0.00 | 70 | 1024.8 |
| 20260902103424 | 75 | 64 | 1.0 | 4.0 | 0.00 | 0.00 | 0.00 | 72 | 1024.8 |
| 20260902103324 | 74 | 68 | 1.0 | 4.0 | 0.00 | 0.00 | 0.00 | 73 | 1024.8 |
| 20260902103203 | 74 | 71 | 1.0 | 4.0 | 0.00 | 0.00 | 0.00 | 73 | 1024.8 |
| 20260902103103 | 73 | 74 | 1.0 | 4.0 | 0.00 | 0.00 | 0.00 | 74 | 1024.8 |
| 20260902103003 | 73 | 76 | 1.0 | 4.0 | 0.00 | 0.00 | 0.00 | 74 | 1024.7 |
| 20260902102903 | 73 | 77 | 1.0 | 4.0 | 0.00 | 0.00 | 0.00 | 74 | 1024.7 |
| 20260902102803 | 72 | 76 | 1.0 | 4.0 | 0.00 | 0.00 | 0.00 | 74 | 1024.8 |
| 20260902102703 | 72 | 74 | 1.0 | 4.0 | 0.00 | 0.00 | 0.00 | 76 | 1024.8 |
| 20260902102603 | 72 | 74 | 1.0 | 4.0 | 0.00 | 0.00 | 0.00 | 76 | 1024.8 |
| 20260902102503 | 72 | 66 | 1.0 | 4.0 | 0.00 | 0.00 | 0.00 | 74 | 1024.8 |
| 20260902102403 | 72 | 69 | 1.0 | 4.0 | 0.00 | 0.00 | 0.00 | 74 | 1024.6 |
| 20260902102307 | 72 | 47 | 1.0 | 2.0 | 0.00 | 0.00 | 0.00 | 75 | 1024.6 |
| 20260902102203 | 72 | 40 | 1.0 | 2.0 | 0.00 | 0.00 | 0.00 | 75 | 1024.7 |
| 20260902102103 | 72 | 34 | 1.0 | 2.0 | 0.00 | 0.00 | 0.00 | 74 | 1024.6 |
| 20260902102003 | 72 | 23 | 1.0 | 2.0 | 0.00 | 0.00 | 0.00 | 76 | 1024.9 |
| 20260902101903 | 71 | 18 | 1.0 | 2.0 | 0.00 | 0.00 | 0.00 | 77 | 1024.9 |
| 20260902101803 | 70 | 16 | 1.0 | 2.0 | 0.00 | 0.00 | 0.00 | 79 | 1025.0 |
| 20260902101703 | 70 | 17 | 1.0 | 2.0 | 0.00 | 0.00 | 0.00 | 78 | 1025.0 |
| 20260902101603 | 70 | 17 | 1.0 | 2.0 | 0.00 | 0.00 | 0.00 | 77 | 1024.7 |
| 20260902101503 | 71 | 17 | 1.0 | 2.0 | 0.00 | 0.00 | 0.00 | 78 | 1024.7 |
| 20260902101403 | 71 | 17 | 1.0 | 2.0 | 0.00 | 0.00 | 0.00 | 77 | 1024.9 |
| 20260902101324 | 71 | 18 | 1.0 | 2.0 | 0.00 | 0.00 | 0.00 | 78 | 1024.8 |
| 20260902101224 | 71 | 20 | 1.0 | 2.0 | 0.00 | 0.00 | 0.00 | 77 | 1024.8 |
| 20260902101103 | 71 | 20 | 1.0 | 2.0 | 0.00 | 0.00 | 0.00 | 79 | 1024.8 |